ECMWFNIL_prec_cthk_000.txt.gz
RH
26 24 24 25 25 28 33 36 37 35 30 26 26 27 25 21 20 20 19 20 20 19 19 19 20 21 21 22 23 24 26 28 29 29 28 27 29 30 31 31 31 32
27 25 25 25 25 28 33 36 36 34 30 26 25 24 20 16 15 14 16 21 24 25 23 21 22 23 23 24 26 28 30 32 33 34 33 33 34 34 34 33 31 32
25 25 25 25 26 29 33 35 34 34 31 27 23 22 20 17 15 14 16 22 26 27 25 24 25 26 27 28 29 30 31 31 32 34 37 40 41 41 41 40 36 35
24 25 24 24 26 29 33 35 35 36 35 30 26 25 23 20 18 17 19 22 24 26 27 27 28 29 29 29 30 30 30 31 32 35 41 44 46 47 47 45 44 41
27 26 24 23 25 28 32 34 36 39 38 35 32 30 27 24 23 22 21 21 23 26 28 29 29 29 29 28 28 28 28 29 31 34 39 44 47 49 48 45 45 45
32 32 29 25 24 28 32 35 38 41 40 38 36 35 31 28 26 25 24 24 25 27 29 28 28 28 29 29 28 28 28 29 31 33 36 40 42 42 42 42 43 49
39 41 39 32 27 29 33 36 39 42 42 40 39 37 34 31 29 29 28 28 28 29 29 28 28 30 33 33 32 31 30 31 34 37 38 39 40 41 43 45 48 53
45 50 51 43 33 30 33 35 39 43 43 41 40 39 36 33 31 32 31 30 29 29 29 29 30 33 35 37 37 36 35 36 38 40 40 40 42 45 47 48 49 52
51 57 58 53 41 33 32 34 38 43 45 43 43 40 37 35 34 33 31 29 29 30 30 30 31 33 36 39 39 40 41 41 42 41 41 41 44 47 48 48 48 47
58 62 61 59 49 36 33 37 41 45 46 45 44 41 37 36 34 32 29 27 28 29 30 32 33 35 36 39 39 41 42 41 41 40 40 41 44 47 48 47 48 47
59 62 61 59 51 40 36 41 46 46 46 46 44 40 36 35 33 30 28 28 29 30 31 34 36 36 37 38 38 39 39 39 39 39 39 39 40 43 44 45 46 46
56 61 62 55 46 39 39 48 51 47 46 46 41 38 38 36 33 30 29 30 30 30 32 35 37 38 39 39 38 38 38 39 40 39 39 39 39 39 42 44 45 44
56 61 61 50 41 39 43 53 55 47 45 43 40 41 40 36 33 31 30 30 30 30 33 36 39 40 41 40 38 38 39 39 40 39 39 39 39 40 41 42 44 44
63 67 64 52 44 39 42 50 51 44 42 41 41 42 38 33 32 32 31 31 33 33 35 38 41 42 43 41 40 40 40 41 41 40 39 39 40 41 42 44 47 49
62 64 60 53 48 44 46 50 47 41 39 39 40 39 35 33 33 32 31 32 35 36 38 40 42 43 43 43 43 43 44 44 44 43 43 43 44 45 46 48 52 55
56 57 55 52 52 51 51 49 43 40 38 37 37 35 33 33 32 30 31 33 36 38 40 41 42 45 46 46 48 50 49 48 48 49 49 49 49 50 52 54 56 58
56 56 58 57 53 49 47 45 41 39 38 36 35 33 33 33 32 31 33 36 39 42 43 42 42 44 47 50 52 54 54 53 53 56 57 55 54 54 56 57 56 59
60 57 61 60 51 44 44 44 42 39 38 36 34 33 35 36 35 36 38 41 44 47 48 46 44 45 49 52 54 56 58 59 60 61 61 61 60 57 56 56 55 57
63 62 66 61 50 46 47 46 43 41 39 37 35 36 38 39 40 43 46 49 52 53 52 50 48 48 49 52 54 55 57 59 61 62 64 65 64 60 56 55 54 56
64 69 68 61 54 52 50 45 42 41 38 37 37 39 41 45 47 50 51 53 55 58 60 58 55 52 50 51 52 52 53 55 57 59 62 65 65 63 59 56 53 53
74 75 70 63 60 57 50 44 41 39 38 38 39 41 43 48 52 55 56 56 60 69 74 71 62 54 49 50 50 49 49 52 55 58 60 60 60 60 59 56 52 51
77 74 70 67 65 58 50 45 42 38 38 40 42 44 47 52 55 60 62 63 68 76 78 71 61 52 48 48 46 46 47 50 54 56 54 53 53 52 53 54 53 50
81 75 70 69 66 57 50 46 42 39 40 44 47 51 54 58 60 63 64 64 66 68 66 64 61 52 46 45 44 42 43 46 51 52 50 46 46 46 47 51 53 52
84 74 67 67 64 55 49 47 43 42 44 48 52 55 58 61 62 63 64 64 62 61 63 67 64 51 43 44 44 41 41 43 48 50 48 44 43 44 47 49 51 51
78 69 65 67 63 54 51 49 47 47 48 51 54 57 60 63 64 68 71 71 66 64 65 67 61 49 45 47 45 41 41 42 45 47 46 44 44 47 49 51 52 51
72 67 66 65 60 55 53 53 52 52 52 53 55 58 62 66 67 70 72 72 68 62 58 56 54 49 48 46 43 41 41 41 41 43 43 43 46 49 52 55 55 53

ECMWFNIL_prec_cthk_003.txt.gz
RH
37 33 30 29 27 26 27 28 30 31 32 32 32 31 30 30 26 21 18 17 17 16 16 18 20 21 23 23 24 24 24 26 28 30 30 30 32 32 33 34 35 35
34 31 27 28 29 28 26 26 29 31 31 32 34 34 33 32 30 25 20 18 18 18 19 20 21 23 24 25 26 26 27 28 30 31 32 31 33 35 38 40 42 42
33 29 25 27 29 28 26 24 26 29 31 32 35 36 35 34 33 28 23 20 21 24 25 24 24 24 25 26 28 28 28 30 32 34 34 33 33 36 38 40 43 45
34 28 25 28 28 28 29 27 26 28 30 32 34 37 35 33 33 30 26 24 26 29 29 28 27 26 26 27 27 28 28 30 32 34 35 34 34 34 36 39 42 44
40 31 27 29 30 30 34 35 32 30 31 32 34 37 37 36 37 34 30 29 29 29 28 27 29 30 28 27 26 27 27 27 30 32 33 35 35 35 37 39 41 41
48 38 30 31 31 33 39 41 38 35 33 32 33 37 40 41 41 39 35 33 31 29 27 28 30 30 29 29 29 29 28 27 28 30 33 36 37 37 38 40 42 43
57 46 34 33 33 34 40 44 43 40 37 34 34 37 42 44 44 42 38 36 33 30 29 29 29 29 29 31 32 32 32 31 30 32 35 38 39 38 39 41 43 46
58 49 39 39 37 37 44 50 50 47 43 39 36 38 44 46 45 41 38 36 33 32 30 29 29 30 31 32 33 34 34 34 34 35 36 37 37 35 36 38 40 42
54 49 44 43 41 43 53 59 57 55 50 43 39 40 45 47 43 38 37 37 34 32 30 29 29 29 31 33 34 35 35 34 35 35 36 36 35 36 37 37 36 37
53 48 45 46 45 48 57 61 61 59 52 44 42 44 46 46 42 38 38 38 34 32 30 28 28 29 31 34 34 34 34 34 34 35 36 37 37 38 38 37 35 34
54 48 45 47 48 49 54 58 61 60 51 45 46 46 46 44 41 39 38 37 34 31 29 28 29 32 33 33 33 33 33 32 34 37 38 38 36 36 36 36 36 35
53 48 43 44 48 52 54 57 60 59 52 47 48 47 44 42 41 39 39 37 34 30 28 28 30 33 34 34 34 33 32 32 35 37 38 37 36 36 36 37 37 38
51 48 42 43 49 54 55 55 58 59 53 48 48 46 44 42 40 40 39 37 33 29 28 29 32 35 37 38 37 33 32 34 36 38 38 38 40 40 40 41 42 43
51 47 43 44 49 52 53 52 54 56 52 49 49 46 41 40 40 40 39 36 31 28 29 32 35 39 41 42 40 36 34 36 37 39 40 42 44 46 47 48 49 49
54 52 46 45 49 50 51 51 51 52 51 49 48 44 40 40 40 39 39 34 30 30 33 37 40 41 42 44 43 41 40 40 39 39 41 43 45 48 51 52 52 52
58 59 51 46 49 51 51 53 53 52 50 48 47 43 42 43 42 40 38 33 30 32 37 41 43 43 45 49 51 49 45 42 40 38 39 41 43 47 50 52 53 54
58 60 53 50 53 54 53 54 55 53 47 44 44 44 44 45 43 40 37 33 32 36 41 45 46 46 50 54 54 52 47 43 41 38 37 39 42 45 48 50 52 53
63 65 62 62 63 60 58 59 60 56 48 43 45 46 45 45 42 40 37 36 38 42 45 49 50 51 55 57 54 50 46 44 43 40 37 38 42 44 46 48 49 51
73 73 72 73 74 70 65 64 61 55 49 47 49 47 45 43 42 41 41 42 45 47 49 53 54 55 58 59 58 52 46 43 44 41 37 37 39 42 45 46 48 48
69 71 70 71 73 73 70 66 61 55 52 52 52 49 45 44 44 46 47 48 49 52 54 56 57 58 59 61 61 56 47 44 43 40 37 35 36 39 42 44 45 45
59 67 72 72 73 75 74 70 65 61 59 58 57 53 49 48 50 53 53 52 54 56 58 59 61 63 63 65 65 59 50 47 44 39 36 36 36 37 39 42 42 40
66 74 77 78 77 77 76 75 72 67 63 61 59 57 54 53 55 57 56 56 57 59 62 66 69 70 69 68 68 59 50 47 43 38 36 37 36 35 36 38 37 34
78 82 82 83 81 76 75 78 75 69 66 64 63 62 59 57 58 59 59 59 61 65 72 77 78 75 70 66 63 54 45 42 40 38 38 37 35 35 36 36 35 34
83 83 83 85 82 76 77 78 73 69 70 71 70 67 62 59 61 61 60 59 61 67 75 79 79 75 67 59 55 48 42 40 40 40 39 37 36 37 37 36 38 40
84 82 84 87 81 75 77 76 70 72 77 79 76 71 64 63 64 63 60 61 65 72 77 78 76 71 61 52 48 44 40 40 40 39 38 38 38 38 38 40 42 44
84 81 84 86 79 73 74 72 72 78 83 83 80 74 69 68 68 67 68 72 77 80 80 75 68 60 51 46 44 42 39 39 39 38 38 39 38 39 41 43 45 45

ECMWFNIL_prec_cthk_006.txt.gz
RH
37 36 35 35 34 32 30 27 24 25 27 30 32 31 30 31 34 34 31 27 26 25 23 21 19 19 20 21 22 23 24 25 27 31 32 32 31 31 32 32 32 32
40 39 39 39 37 35 34 30 25 23 24 27 29 29 30 33 35 35 33 31 29 26 23 21 20 19 20 21 22 23 24 25 27 30 32 31 30 30 32 32 32 33
43 43 44 44 41 40 38 33 29 26 25 26 28 29 32 34 35 36 34 34 32 28 24 22 21 21 21 21 22 23 23 24 25 27 29 29 29 29 30 32 33 33
48 46 47 47 43 41 40 35 31 29 29 30 31 33 34 33 33 34 34 34 34 31 26 24 22 22 23 22 22 23 23 24 25 25 26 27 28 28 30 32 33 34
46 45 47 49 47 43 41 37 32 30 30 32 35 38 38 34 32 33 33 35 36 33 29 28 27 28 27 25 25 24 24 24 25 26 26 26 27 28 30 31 33 34
41 40 41 49 52 47 42 38 33 31 30 32 39 46 46 41 37 37 36 36 38 37 32 32 34 32 29 27 26 25 25 26 27 27 27 28 28 29 29 31 33 34
40 40 41 49 56 54 48 42 35 31 29 33 43 53 55 52 47 44 41 39 40 39 35 35 36 33 29 27 26 26 28 29 29 30 30 31 31 31 31 32 33 34
43 46 46 47 52 57 57 53 45 35 30 35 48 57 59 58 55 50 47 44 43 41 39 39 38 34 30 28 28 29 30 31 32 33 33 34 34 33 33 33 34 34
41 45 45 44 46 51 54 55 50 40 34 40 53 61 60 58 56 53 52 49 46 42 41 41 40 36 32 30 30 31 32 33 34 35 35 35 35 34 34 34 34 33
38 39 41 42 43 46 49 53 49 41 38 44 54 58 55 53 53 54 54 53 48 44 42 42 40 35 31 30 31 32 34 35 36 37 36 35 36 37 37 36 34 33
42 40 41 42 44 47 51 55 50 40 37 43 53 55 52 51 52 53 56 55 49 45 44 43 40 35 32 32 33 35 37 38 39 38 37 39 42 43 40 38 36 36
48 46 45 47 52 56 59 60 53 42 38 44 54 56 53 52 51 52 57 56 50 47 47 44 41 37 35 34 35 38 40 42 42 39 40 45 46 43 41 41 41 40
53 53 54 57 64 68 67 65 57 47 42 47 57 59 56 54 52 51 55 54 50 49 48 45 40 37 36 36 37 39 42 44 43 39 42 45 43 39 41 44 44 43
56 62 62 62 65 63 61 61 59 54 49 52 60 61 56 56 55 53 54 53 51 51 50 46 40 37 37 37 38 41 43 43 42 41 41 42 39 37 38 41 42 41
60 70 71 68 63 57 57 58 60 62 60 61 66 62 54 55 58 57 57 55 53 53 50 44 39 38 39 40 41 43 44 44 45 44 41 39 38 37 37 38 39 38
68 73 75 74 66 59 61 63 64 68 67 65 68 65 58 56 58 58 58 56 54 54 49 42 39 40 43 44 45 47 48 48 49 47 45 43 41 38 38 38 37 35
66 65 65 66 66 63 63 65 66 68 69 69 71 70 64 60 59 59 58 56 55 54 49 42 41 44 47 49 50 52 53 53 54 54 52 49 45 40 37 37 36 34
63 63 60 59 67 71 70 69 68 65 66 73 78 76 69 64 62 62 59 57 57 55 51 47 45 47 52 53 53 55 56 57 59 59 56 52 47 42 37 35 35 34
62 64 60 60 70 78 79 79 75 68 68 73 74 73 71 68 66 64 61 59 59 57 54 52 50 52 56 56 56 58 61 64 65 64 60 53 46 44 43 38 34 34
63 63 62 66 72 76 79 81 77 74 76 75 71 71 73 72 69 66 63 61 61 60 59 58 57 58 60 59 60 64 68 70 69 66 60 50 45 53 55 44 35 34
65 66 68 71 73 73 76 77 73 73 79 78 74 74 73 72 70 68 66 64 64 64 64 62 62 63 63 62 64 68 71 71 69 64 56 45 44 53 52 40 33 35
61 62 62 64 67 66 65 64 65 71 79 81 79 76 73 74 73 70 68 68 69 69 66 64 66 66 65 66 69 71 73 73 66 58 50 44 41 43 40 35 35 35
54 54 53 55 59 57 53 58 67 77 84 86 83 78 75 75 73 71 72 74 73 71 67 67 68 68 69 72 73 74 76 72 62 52 46 44 41 39 38 36 35 34
53 53 51 53 58 56 56 65 78 85 87 85 80 77 76 75 74 76 79 78 74 71 71 70 69 70 71 74 76 77 74 66 56 49 45 43 42 40 38 36 35 35
52 53 52 53 57 59 64 76 86 87 84 79 77 76 75 75 78 82 83 80 75 75 75 73 71 72 74 75 75 72 64 54 50 47 44 43 42 40 38 36 36 37
53 55 55 56 63 72 81 89 90 82 76 75 76 76 75 77 83 86 84 81 80 80 80 79 79 80 80 78 70 60 51 47 47 46 44 43 42 39 37 37 37 38

ECMWFNIL_prec_cthk_009.txt.gz
RH
39 43 45 46 46 43 42 41 42 43 43 38 33 29 29 33 36 36 36 35 35 34 35 35 31 24 22 22 22 23 25 25 25 26 27 27 27 27 27 26 26 27
41 42 44 48 50 49 47 47 46 44 43 39 34 31 32 35 37 37 36 37 37 36 35 36 32 26 22 22 23 23 25 26 26 26 29 29 29 28 28 28 28 30
39 40 45 49 50 49 50 52 53 51 46 40 36 35 36 37 39 39 39 39 38 37 37 37 34 29 24 22 24 24 25 26 26 26 29 30 29 30 30 29 29 30
39 42 45 47 47 48 49 52 56 57 51 43 38 38 37 36 39 44 48 46 42 40 41 41 36 31 27 25 25 24 24 25 25 26 28 29 29 30 30 30 30 30
40 43 44 45 45 46 48 51 57 61 56 46 42 43 41 36 37 44 52 56 53 48 46 47 42 33 29 29 27 25 24 24 24 25 26 27 29 29 30 30 31 31
39 42 42 43 42 43 46 49 56 61 59 50 44 44 44 41 39 41 50 58 59 55 51 49 47 39 32 31 32 30 27 25 24 26 26 26 28 29 30 32 32 31
37 38 37 40 42 43 46 51 57 60 59 54 51 48 48 48 44 43 51 56 55 54 51 47 48 44 36 35 37 35 31 27 27 28 28 29 30 31 32 33 34 34
41 39 37 38 40 43 49 56 61 60 56 55 55 50 50 53 49 45 50 53 49 49 48 45 47 48 43 41 41 39 34 30 30 31 31 32 33 34 35 35 36 37
43 42 41 43 48 53 58 58 57 57 55 55 56 52 52 55 52 48 51 49 46 48 49 47 47 49 50 48 43 41 37 33 33 34 35 35 35 36 36 36 37 39
46 48 48 52 57 60 62 61 61 63 62 58 58 58 58 57 53 52 55 52 47 48 51 50 48 48 52 52 46 42 40 36 35 36 38 38 38 38 37 37 38 38
55 58 55 54 55 55 59 64 67 68 67 62 60 61 60 58 55 53 57 58 54 51 53 53 50 49 53 54 49 45 42 39 38 39 40 40 38 38 37 38 38 35
65 65 60 57 55 55 58 64 67 70 69 65 60 58 56 57 58 55 55 61 61 57 57 57 53 51 53 53 50 47 45 42 41 43 43 42 39 38 38 39 39 36
59 57 57 57 54 53 55 59 63 66 66 63 60 57 53 54 60 58 55 60 64 62 60 60 57 55 55 54 52 51 47 45 46 47 47 45 43 42 42 41 40 37
49 49 54 56 54 54 57 59 59 60 59 57 55 53 51 52 59 63 61 62 66 66 63 62 62 60 58 57 55 53 50 47 48 50 50 48 47 47 47 45 43 41
52 53 58 63 62 61 64 66 65 64 63 59 53 52 52 53 59 66 67 67 70 69 64 64 66 63 60 58 57 56 54 50 50 53 54 53 51 51 51 49 48 46
56 57 58 64 69 66 65 69 73 73 73 69 62 57 55 57 63 69 71 70 73 72 66 65 67 65 62 61 60 62 60 56 55 57 58 56 55 55 56 53 50 48
54 54 54 59 69 72 70 72 76 76 76 75 67 60 58 61 66 70 73 73 75 73 69 68 70 68 65 65 65 68 67 61 60 61 60 60 60 60 59 55 49 48
50 51 53 56 68 78 76 73 69 63 64 68 66 61 60 62 63 68 75 77 78 75 72 71 72 70 70 70 69 71 70 65 64 65 64 64 64 64 61 56 52 54
51 52 55 57 64 70 70 66 63 57 56 62 66 63 62 65 65 68 75 80 80 78 76 75 73 73 75 74 72 71 70 68 69 69 68 68 68 68 68 63 56 55
55 56 57 59 60 62 62 59 60 61 59 61 66 67 68 71 70 71 80 83 78 76 78 77 75 75 77 77 76 73 69 69 73 75 74 74 73 73 73 66 54 50
53 54 56 58 57 58 58 56 56 60 60 61 65 67 70 75 76 77 84 82 72 72 76 75 74 76 78 79 79 75 72 72 76 77 77 78 79 78 74 63 52 51
50 49 51 52 52 52 54 53 53 58 60 60 61 63 69 77 77 77 80 77 71 72 74 72 74 79 81 81 80 79 78 77 77 78 79 81 80 77 70 59 51 51
50 49 49 49 49 49 50 50 50 53 54 56 61 69 76 77 73 72 76 76 74 74 73 72 76 81 82 81 81 83 83 81 80 80 80 80 76 69 63 57 50 48
52 52 51 50 47 46 47 50 51 52 55 63 74 82 81 74 70 71 74 74 73 73 74 75 80 84 85 84 85 86 84 83 82 81 81 81 75 64 58 54 50 48
54 54 53 50 47 46 49 54 56 56 60 68 76 76 71 67 67 69 71 72 71 70 72 76 81 84 85 86 88 87 84 84 84 83 85 85 74 61 55 53 50 49
54 54 53 51 48 49 53 55 55 57 61 64 65 63 61 62 66 68 68 68 67 67 71 79 86 87 87 89 89 88 87 87 87 87 88 81 68 58 57 55 52 50

ECMWFNIL_prec_cthk_015.txt.gz
RH
27 28 29 31 32 36 42 44 46 48 50 51 52 53 54 53 51 51 51 50 50 51 50 51 52 52 52 51 49 48 46 44 41 40 41 42 41 37 33 31 31 32
29 31 33 35 35 35 39 43 46 48 49 50 52 55 55 53 53 54 55 54 53 53 54 56 58 58 58 59 58 55 51 48 47 45 45 46 46 44 40 35 32 33
30 34 35 37 38 37 37 42 46 47 49 49 49 53 55 55 57 59 61 62 62 62 61 60 62 61 57 59 63 62 57 55 54 50 45 45 46 46 44 40 35 33
31 34 36 39 41 40 38 41 43 46 49 51 51 54 56 58 59 60 63 65 66 66 65 62 64 66 61 58 62 67 67 65 63 59 52 46 47 48 47 45 41 36
32 35 37 39 40 41 43 42 42 45 49 54 59 59 57 57 58 58 61 63 61 60 58 59 63 69 68 62 61 66 72 73 70 67 62 53 49 51 51 49 46 42
33 35 37 38 38 42 45 45 45 47 50 56 63 61 57 58 60 62 63 62 60 56 54 57 62 66 67 67 65 65 70 75 73 70 68 62 56 54 54 53 50 47
33 34 35 37 38 41 46 48 50 50 50 53 59 59 59 61 62 63 61 57 56 55 53 56 60 62 65 67 66 64 67 74 75 70 68 67 62 60 59 59 57 54
31 33 35 37 38 42 46 49 50 49 49 52 57 58 60 62 59 56 54 52 51 52 51 52 55 59 62 62 62 60 62 72 76 71 69 69 66 64 65 65 64 61
29 33 36 36 39 43 47 49 52 53 53 56 59 61 60 57 52 50 49 48 47 47 50 52 54 57 60 59 58 57 58 67 73 73 73 72 68 66 66 67 68 67
29 33 36 39 42 45 46 49 54 57 55 54 55 58 57 51 47 45 45 44 43 45 48 49 50 54 57 57 56 55 56 61 66 72 76 75 70 68 68 70 72 72
32 35 38 42 43 45 47 51 55 54 49 48 50 51 49 46 44 43 43 43 42 44 46 44 43 45 48 49 49 52 55 60 66 72 75 73 69 68 70 72 74 73
35 38 42 43 42 43 48 51 52 50 48 47 50 51 49 46 45 44 42 41 41 43 44 44 42 41 41 41 44 47 54 62 69 72 72 69 66 66 67 71 74 74
39 40 41 41 39 40 43 45 44 46 50 50 51 55 55 52 50 47 43 42 41 41 44 45 43 42 42 44 47 51 57 65 70 71 71 69 67 66 66 68 74 79
46 43 41 41 41 41 42 42 41 45 51 52 53 57 58 54 52 50 49 48 43 41 44 46 44 43 45 45 48 53 59 65 68 69 69 69 66 67 69 70 73 79
51 49 46 45 45 45 44 44 47 49 51 50 50 53 54 52 51 51 52 51 46 43 46 46 43 44 44 41 44 50 55 62 68 68 67 67 65 65 70 72 73 78
51 50 49 48 47 47 46 49 53 54 53 52 51 51 50 50 51 51 52 52 49 48 49 46 43 44 42 37 39 46 51 58 65 67 67 68 65 65 69 71 73 79
50 49 50 50 49 48 48 51 56 58 58 56 54 52 50 50 52 53 53 52 51 53 54 49 45 44 41 36 37 42 47 54 62 67 70 70 67 66 67 68 73 81
50 49 48 50 50 48 48 53 57 58 56 54 53 54 54 54 54 53 53 53 54 58 60 55 48 45 43 41 41 43 47 54 63 69 72 71 69 66 64 67 73 81
49 48 48 49 48 49 51 54 55 54 53 54 56 58 58 58 55 53 53 54 55 59 60 60 56 52 50 51 52 52 54 58 64 69 72 72 70 66 64 67 74 79
48 49 50 49 50 52 54 53 53 53 55 58 61 62 62 60 56 54 54 55 57 56 56 59 60 57 57 59 59 59 60 61 65 72 76 76 71 66 65 68 72 77
50 52 51 52 55 57 55 53 55 58 60 63 65 65 64 60 57 55 54 55 58 57 55 57 58 60 64 64 61 62 64 65 69 75 77 74 69 67 68 69 72 78
52 54 53 54 57 56 54 54 58 61 63 64 64 64 62 58 56 56 55 56 59 58 56 55 57 64 70 67 62 64 66 67 70 71 69 67 65 66 70 73 76 82
53 55 55 55 54 51 51 54 57 60 62 63 62 63 62 58 57 58 58 58 58 57 57 58 61 70 74 67 62 62 63 63 64 64 64 64 63 64 69 73 78 83
54 56 55 53 53 53 53 55 57 59 60 61 63 65 64 62 61 61 60 58 57 57 58 61 66 73 73 66 61 60 61 62 62 62 62 62 61 63 67 71 76 80
53 54 54 55 58 60 61 61 61 61 63 63 63 64 65 64 62 60 58 58 57 57 56 59 64 67 65 61 61 61 62 64 64 63 62 60 60 62 66 70 75 80
51 53 55 58 61 63 63 64 64 65 67 67 64 63 64 61 57 56 57 57 56 54 54 56 60 62 60 58 60 62 63 66 66 63 61 60 60 62 66 71 76 82

ECMWFNIL_prec_cthk_021.txt.gz
RH
16 16 17 19 22 24 26 26 27 29 30 31 30 31 30 30 32 35 38 40 38 39 44 47 48 48 48 50 50 50 53 56 59 60 56 54 56 56 57 59 62 62
18 17 18 20 23 24 25 27 28 28 29 31 30 30 32 36 40 42 43 43 41 44 46 46 46 47 47 48 47 47 51 53 55 56 54 54 56 57 57 58 59 59
21 20 21 23 25 26 27 29 30 30 32 32 32 34 39 42 44 46 45 42 42 45 47 45 44 45 46 45 44 45 49 49 48 49 49 52 53 54 56 56 55 55
25 24 24 26 27 27 28 30 31 32 33 33 35 39 43 44 45 45 43 42 43 46 48 47 46 45 44 42 40 41 45 47 45 44 45 48 48 47 50 53 53 53
28 26 27 29 29 28 28 28 30 31 32 34 38 41 44 44 44 44 43 43 44 46 47 47 47 45 42 39 37 37 39 42 42 41 42 45 46 44 45 49 51 53
31 28 29 30 29 28 27 27 29 30 32 35 39 42 44 44 44 44 44 43 43 43 44 45 45 44 40 38 37 35 35 35 36 38 39 42 46 46 47 49 50 53
31 29 29 29 28 27 27 27 28 30 32 35 37 39 42 43 44 44 42 40 40 40 42 42 42 42 41 39 37 36 35 34 34 35 36 39 42 46 49 51 51 53
31 28 27 28 27 27 27 28 28 29 33 35 34 36 41 42 41 39 39 39 40 41 42 43 43 43 44 43 41 38 38 36 35 35 36 37 39 42 45 49 51 52
32 28 25 26 26 26 27 28 29 31 33 33 33 35 38 38 37 38 39 39 40 41 44 46 47 47 48 49 46 42 39 38 37 37 38 38 38 40 42 44 46 47
31 27 24 24 25 26 26 27 28 31 33 32 32 34 35 36 38 40 40 40 41 43 46 48 50 51 52 52 52 47 42 40 39 40 41 41 40 40 41 42 42 42
29 27 24 24 25 25 25 26 28 30 32 32 31 32 34 37 39 40 41 42 44 45 47 49 50 52 54 55 55 53 47 43 42 43 44 43 42 41 44 45 44 41
29 28 26 24 24 24 25 26 28 31 33 34 33 33 34 37 38 39 41 42 44 45 46 46 48 52 55 56 58 57 51 46 45 45 44 43 44 48 51 49 46 46
29 28 26 24 24 24 24 26 29 32 35 36 35 35 34 35 37 39 40 41 42 43 43 43 47 53 57 58 58 58 55 51 47 47 48 48 52 58 57 53 52 52
30 29 27 26 25 24 26 28 31 34 36 38 37 36 36 36 37 39 40 41 42 43 43 45 50 56 58 59 60 60 60 58 55 56 58 59 61 63 61 59 60 59
31 31 30 28 27 27 29 31 33 35 37 39 40 40 39 39 40 42 43 45 49 50 50 52 57 59 59 61 62 63 65 64 62 63 64 64 65 65 64 65 65 64
33 32 32 31 30 30 32 33 35 36 39 42 43 43 44 45 46 47 49 51 55 57 56 55 57 57 57 59 60 61 64 67 65 61 60 62 61 59 64 69 70 69
35 34 34 34 33 33 34 36 38 40 43 45 46 47 48 49 50 52 53 55 58 59 56 54 54 54 56 57 58 58 61 66 67 61 57 59 58 58 67 76 79 79
35 35 35 36 36 36 38 40 43 45 46 47 48 49 51 52 54 54 54 57 59 57 55 55 56 58 59 58 58 58 57 61 66 62 57 57 57 62 73 82 85 84
34 35 36 36 37 39 41 45 47 48 48 48 49 50 52 54 55 55 56 59 59 57 57 59 61 62 62 62 62 60 56 58 63 60 54 55 60 68 78 82 81 77
32 34 36 38 39 42 44 46 48 49 49 49 50 51 53 55 55 58 60 60 58 57 60 62 63 64 64 64 65 62 58 60 62 57 51 51 59 72 82 81 73 67
31 33 35 38 40 43 45 46 48 49 50 51 52 53 54 55 57 59 60 56 55 58 60 61 63 64 65 66 66 63 61 63 63 58 52 51 58 69 75 73 67 63
30 33 36 38 40 43 46 48 49 50 52 52 53 54 55 57 58 57 56 54 57 60 61 62 64 64 65 65 63 61 60 58 58 57 55 57 63 69 68 65 63 61
31 34 37 40 43 45 47 49 50 51 52 53 53 54 55 56 56 55 54 57 62 63 63 66 67 66 65 64 61 57 55 55 58 60 61 66 70 70 65 62 60 60
31 35 38 41 43 45 47 49 51 52 53 53 53 54 55 56 56 56 57 61 65 65 64 66 68 68 65 61 56 53 53 57 61 62 64 70 71 67 63 59 58 60
32 35 38 40 42 44 47 49 51 53 54 54 55 56 57 56 55 57 61 65 66 66 66 68 69 67 62 57 52 51 53 56 59 61 64 67 66 62 61 58 57 59
35 36 38 41 43 46 49 51 52 54 55 57 58 58 56 54 54 58 63 66 66 65 67 69 69 65 60 53 50 50 51 53 56 60 64 64 61 60 60 56 54 55

ECMWFNIL_prec_cthk_024.txt.gz
RH
23 19 18 17 16 16 19 24 26 26 28 29 31 34 32 28 28 31 33 36 39 40 39 38 38 42 45 48 49 50 52 50 47 46 45 43 42 42 44 48 48 45
26 21 19 18 17 17 19 24 25 25 27 30 32 32 31 31 33 34 36 38 40 39 38 38 41 44 45 46 47 48 48 46 45 45 44 42 41 40 41 45 46 45
28 24 21 20 19 19 21 24 26 25 28 31 31 32 34 36 37 38 40 40 39 39 40 40 41 42 44 43 44 45 44 43 43 43 42 41 40 39 38 41 44 46
27 26 24 22 22 22 23 25 26 26 29 31 32 36 39 40 39 40 41 39 39 42 43 42 39 39 40 40 41 41 41 40 40 41 42 40 40 39 37 37 40 42
26 25 25 25 25 26 26 26 27 29 31 32 35 40 43 41 40 41 41 40 43 45 44 40 38 37 37 39 39 38 38 39 39 40 41 40 40 40 38 37 38 39
25 25 25 26 27 29 28 27 29 31 31 33 38 42 42 41 40 41 41 43 44 43 41 39 37 38 39 39 38 37 37 37 38 39 40 40 40 40 40 40 39 39
24 24 25 26 28 31 30 29 30 31 31 36 40 41 41 40 39 41 42 42 40 40 40 38 37 39 41 41 40 38 37 37 37 38 39 39 40 41 42 42 41 41
22 23 25 25 26 30 31 29 29 29 31 37 40 39 39 39 39 40 39 38 38 38 39 39 39 40 42 44 44 41 38 37 37 38 39 40 40 41 43 44 46 47
22 23 26 26 27 30 31 28 27 27 30 36 39 38 38 38 38 37 36 36 38 38 39 41 42 43 45 47 47 45 41 38 37 37 38 40 41 42 44 49 53 53
23 25 26 28 29 30 28 26 26 27 29 35 37 35 36 36 36 35 35 36 38 39 42 45 46 47 48 50 49 48 46 43 40 38 37 40 41 44 50 55 58 58
23 24 26 28 29 27 24 24 26 26 29 33 35 34 35 34 34 35 35 37 38 41 44 46 48 48 48 50 50 51 51 50 47 44 42 42 43 47 53 57 59 59
24 24 25 25 25 23 22 23 25 26 29 32 34 34 34 34 35 36 36 36 38 41 43 44 45 46 46 48 51 54 55 55 53 51 50 49 48 50 54 56 56 56
27 23 22 22 21 20 20 21 24 26 28 31 32 33 34 35 36 37 36 37 37 38 40 42 44 45 47 50 54 57 59 59 58 57 58 57 55 54 55 55 53 54
29 25 21 20 19 19 19 21 23 24 27 30 32 33 34 35 36 37 38 38 38 39 40 42 45 48 51 53 56 58 58 57 58 59 61 62 61 60 59 56 53 54
31 28 24 21 20 20 20 21 22 24 27 30 33 34 34 35 36 38 40 41 42 42 43 45 49 52 53 54 55 56 55 55 56 59 61 63 65 65 62 57 53 52
32 30 27 24 22 22 21 21 22 23 26 30 33 34 34 35 38 40 43 44 44 44 45 48 51 53 54 54 53 54 55 57 59 61 62 63 64 67 65 58 52 50
31 31 29 26 23 22 22 22 22 24 27 31 33 34 35 38 42 44 45 45 45 44 46 49 52 53 53 52 52 55 58 61 61 62 66 65 62 65 66 59 52 48
31 31 30 28 25 24 22 23 24 26 28 31 33 35 38 43 47 49 48 48 47 47 49 51 53 53 51 50 53 56 59 60 60 64 71 67 61 65 66 57 50 48
30 31 30 29 27 25 25 26 28 29 30 33 35 37 41 46 48 49 50 49 49 49 52 55 55 52 51 53 57 57 59 63 66 69 69 63 60 65 64 54 51 52
31 30 30 30 28 28 29 30 31 31 33 36 39 42 44 46 47 49 49 47 49 52 55 56 54 52 54 57 58 59 62 66 70 69 62 56 55 59 58 54 54 57
31 30 30 30 30 31 32 33 33 35 38 42 44 46 46 46 46 47 46 47 51 55 57 56 54 54 58 60 60 62 64 66 68 65 58 52 51 52 54 57 58 60
31 30 30 31 32 33 34 36 36 38 42 45 47 48 48 48 48 47 47 49 54 58 58 56 55 56 61 63 63 64 65 66 68 65 59 53 48 49 56 61 61 61
31 30 30 31 33 34 35 36 38 41 45 47 49 50 51 50 49 48 50 54 57 58 58 55 55 59 63 63 63 64 65 66 66 63 60 53 47 50 59 64 62 61
31 30 31 32 33 34 35 37 39 42 45 47 47 49 49 50 49 50 54 57 58 57 55 54 56 60 62 63 63 63 63 63 62 62 61 54 47 50 60 64 63 63
33 31 31 32 32 33 36 39 40 42 44 45 45 47 49 50 51 54 57 57 58 57 54 55 58 60 62 63 62 61 60 60 61 63 59 52 48 50 57 62 63 64
34 33 32 32 33 34 38 42 43 44 45 46 47 50 51 52 53 56 57 57 57 56 55 56 59 60 60 61 60 60 60 61 63 63 57 51 49 50 55 60 62 64

ECMWFNIL_prec_cthk_027.txt.gz
RH
28 27 26 25 24 24 23 20 18 17 19 23 25 29 32 32 31 32 34 35 35 36 37 37 37 38 40 43 44 42 42 41 40 41 43 43 42 40 39 41 42 41
29 28 28 26 24 23 23 22 20 18 21 25 28 30 31 29 28 29 32 34 35 36 37 37 40 42 42 42 40 38 38 38 38 39 41 42 42 40 37 38 40 41
29 28 28 27 24 22 21 23 22 20 23 28 30 30 29 27 27 29 31 35 37 38 36 38 43 44 42 40 37 35 35 36 37 38 39 41 43 42 39 38 40 42
28 28 28 28 26 23 21 22 23 23 25 29 31 30 28 26 28 30 32 38 41 39 37 40 44 43 40 38 36 35 35 36 38 39 41 42 43 44 42 41 40 43
26 27 27 27 27 25 22 21 23 25 26 29 31 31 29 27 30 33 36 40 42 41 41 43 43 42 39 37 36 36 36 37 39 42 43 44 44 44 43 43 44 46
24 25 26 27 26 26 23 20 22 26 28 29 31 31 29 29 32 36 39 42 42 42 44 42 42 42 40 38 38 38 38 39 41 44 45 45 45 45 45 46 47 49
24 24 25 26 27 27 24 22 23 27 28 29 30 31 30 30 34 38 40 42 42 43 42 39 40 42 41 41 42 42 42 41 43 45 45 45 45 44 44 46 48 50
24 24 23 24 25 27 25 23 24 28 30 30 31 32 31 31 35 38 40 42 43 42 39 38 39 41 43 44 44 45 45 43 43 43 43 42 42 41 43 46 49 51
25 23 23 22 23 25 25 24 24 28 31 32 33 33 32 33 36 38 39 42 42 40 38 38 39 41 44 46 46 46 46 44 43 41 41 40 39 40 43 48 52 54
25 24 23 22 21 22 23 23 23 26 30 32 34 33 32 34 37 38 40 42 41 39 39 39 39 41 45 48 47 46 46 45 43 42 40 39 39 40 43 49 55 58
27 25 23 22 22 22 23 22 23 25 28 31 33 32 32 35 37 37 40 41 40 39 40 39 39 42 46 48 48 46 44 43 44 45 44 43 43 43 46 51 56 60
29 27 25 23 22 23 24 24 24 26 28 30 31 30 32 35 36 37 39 39 38 39 40 40 41 43 45 47 47 45 43 43 45 49 51 52 52 52 53 55 58 60
29 29 27 25 22 23 26 27 28 28 27 27 28 29 32 34 34 36 38 39 38 39 41 42 43 44 45 46 46 45 45 47 49 52 55 58 59 59 59 60 59 59
30 30 29 27 24 23 26 29 31 29 26 24 25 27 30 32 33 36 38 38 39 39 41 43 45 45 46 46 46 47 50 52 54 55 57 60 63 64 64 63 62 60
32 32 31 29 26 24 25 27 29 29 27 25 24 24 28 31 33 36 37 38 39 40 42 44 45 46 46 47 48 50 54 56 57 57 57 61 65 67 66 67 66 62
34 32 32 32 29 25 24 25 27 28 29 27 24 23 27 31 33 35 37 38 40 41 43 44 45 46 47 48 49 52 56 59 59 57 58 62 65 66 68 71 71 63
35 34 33 33 31 28 27 26 26 28 29 29 26 25 28 30 32 34 37 39 41 43 44 44 44 45 47 48 49 52 57 59 58 58 61 63 64 67 71 74 74 66
36 36 36 34 33 31 29 28 29 29 29 29 28 27 28 29 31 33 36 39 42 45 45 45 44 45 47 48 48 53 58 58 56 59 62 63 65 69 73 74 75 71
38 39 38 37 35 33 31 30 30 31 31 29 28 28 28 28 30 32 35 39 42 45 45 44 45 46 46 46 49 56 58 56 56 59 61 62 64 68 72 74 75 74
39 40 39 39 39 38 35 33 31 32 32 30 30 29 28 28 29 31 34 38 40 43 43 43 45 47 46 47 51 57 57 54 57 60 61 63 64 66 73 75 71 68
39 40 40 41 42 42 40 36 33 33 33 32 31 29 27 27 29 31 34 36 38 40 41 42 46 47 47 48 53 57 55 54 58 61 62 65 65 67 75 77 70 67
38 39 42 43 44 45 44 40 35 33 32 32 31 30 28 29 30 31 34 36 38 39 40 43 47 48 48 51 56 57 55 55 59 61 62 65 66 67 73 77 74 71
41 40 42 45 46 46 45 43 39 35 33 32 31 30 30 30 30 33 36 37 38 39 40 44 48 48 49 53 58 57 55 56 60 62 63 66 66 66 68 70 69 65
43 42 44 47 47 46 45 44 42 38 35 33 32 32 32 31 32 35 36 36 37 38 40 45 48 48 50 56 59 57 55 57 60 63 64 65 64 64 64 64 64 61
42 42 45 47 46 44 44 43 42 40 38 36 34 34 35 35 36 36 35 35 36 38 42 47 48 49 52 58 59 57 57 59 62 63 64 64 63 63 62 62 62 60
41 41 43 45 45 44 43 43 42 40 40 39 37 37 39 38 38 38 38 39 39 41 45 49 49 51 56 60 59 58 59 61 62 64 63 62 61 61 61 62 60 56

ECMWFNIL_prec_cthk_030.txt.gz
RH
24 24 23 21 21 21 21 21 19 19 18 17 19 22 27 30 33 36 37 36 36 39 41 42 40 39 43 46 46 43 38 36 38 39 41 43 44 46 48 50 50 51
26 27 26 24 23 22 21 21 20 19 17 17 18 20 25 29 33 36 37 36 37 38 40 40 38 38 42 45 44 39 35 36 38 40 41 42 43 46 49 51 51 51
26 27 28 27 26 24 23 22 21 20 19 18 18 19 23 27 33 37 36 35 36 38 39 39 37 39 43 44 42 37 35 36 39 40 41 41 43 45 48 51 52 52
25 27 29 29 28 27 26 24 22 20 19 19 19 20 23 26 32 36 35 34 36 38 39 39 39 41 43 42 40 37 37 38 40 41 42 42 43 45 47 50 52 52
24 26 28 29 29 29 29 27 24 21 20 19 19 22 24 26 31 34 32 32 34 37 39 40 43 45 43 41 39 39 39 40 41 42 43 43 43 45 47 49 50 51
25 25 27 29 30 31 30 29 26 23 21 19 20 23 25 27 30 31 30 30 33 37 40 41 45 46 43 41 40 41 41 42 42 43 43 43 43 45 46 47 48 48
27 27 27 28 30 31 31 30 28 26 23 21 21 24 26 29 29 29 28 30 34 38 41 43 46 46 42 40 41 43 43 43 43 43 42 42 43 43 43 44 46 46
30 29 28 27 27 28 29 29 29 28 26 24 24 24 27 29 29 27 27 30 35 40 42 44 46 45 41 40 41 44 45 44 42 41 41 40 40 41 42 45 47 47
32 30 29 27 26 26 27 28 29 29 28 27 26 27 28 30 30 28 27 30 36 41 43 44 45 44 42 41 41 45 47 45 42 41 40 39 39 40 42 45 47 48
35 32 29 27 26 25 25 26 28 29 29 28 29 30 31 31 31 29 28 31 37 41 43 44 44 43 42 41 42 45 47 45 43 42 40 40 40 40 41 43 47 49
37 34 30 28 27 26 25 25 27 28 28 28 30 33 33 32 31 30 29 32 37 40 41 43 43 42 42 42 43 45 45 45 45 43 42 42 42 41 41 44 47 49
38 35 31 30 30 29 26 25 24 26 27 28 31 35 36 34 32 31 31 34 38 39 39 41 42 41 41 43 44 45 44 45 45 44 44 44 45 45 47 48 51 52
38 37 35 33 33 32 30 26 23 23 24 27 31 35 37 36 33 32 32 34 37 38 37 39 40 40 40 43 45 46 45 45 45 45 46 47 47 48 51 54 56 57
38 39 39 37 35 34 32 29 25 23 22 24 27 32 37 37 35 32 32 34 36 36 37 38 38 38 39 42 46 47 46 45 44 44 46 48 49 50 54 56 58 59
39 41 42 40 38 36 34 32 29 25 24 25 26 30 35 37 35 32 32 33 34 35 36 36 36 37 39 43 46 47 45 44 43 44 45 48 50 53 56 57 56 58
40 41 42 42 40 37 35 34 31 28 26 27 28 30 33 34 32 30 30 30 31 32 34 35 35 35 39 44 47 46 44 43 42 43 45 48 52 56 57 56 56 58
40 41 42 42 41 39 37 36 34 31 28 27 27 28 29 29 28 27 27 28 29 30 32 34 34 35 39 44 46 45 43 41 41 42 46 51 55 57 57 56 57 59
39 41 42 42 42 41 40 39 37 34 30 28 26 26 26 26 24 24 25 27 27 27 30 33 33 34 39 44 46 45 43 40 40 43 47 52 56 57 55 55 59 63
41 42 43 43 43 44 43 42 40 37 34 31 28 26 25 24 22 22 24 26 25 26 29 32 32 34 39 43 45 44 41 40 41 44 48 52 56 57 55 55 59 64
42 42 43 43 45 46 46 43 40 39 37 35 32 29 26 25 24 23 23 24 24 24 28 31 31 34 38 42 44 43 41 40 41 45 49 52 57 58 55 56 59 63
42 42 44 45 46 47 47 45 41 40 39 38 36 33 30 28 26 25 24 24 24 25 28 30 31 34 37 40 42 41 40 40 43 47 50 53 59 60 57 57 58 60
41 43 46 48 50 50 50 47 43 41 40 40 38 37 34 31 29 27 26 26 26 27 28 28 30 33 35 38 41 40 40 42 45 48 51 55 60 61 59 58 58 58
42 44 46 49 52 53 52 50 47 43 42 42 41 39 38 35 33 31 29 29 29 28 27 27 30 33 34 36 39 40 41 45 47 49 51 55 61 63 60 58 59 59
43 44 46 48 49 49 48 49 48 46 44 44 43 41 40 38 36 34 33 32 31 28 26 28 31 33 33 35 38 40 43 46 48 49 51 55 61 64 62 60 61 60
44 45 45 46 46 46 46 47 49 48 47 47 45 43 41 40 38 38 37 35 32 30 28 29 33 35 35 36 38 41 44 47 48 50 53 57 63 66 63 62 63 62
45 45 45 45 44 44 45 48 51 52 51 50 49 47 45 43 41 40 40 38 35 33 32 32 34 37 37 37 38 41 43 46 49 53 57 60 64 66 64 63 64 64

ECMWFNIL_prec_cthk_033.txt.gz
RH
20 20 19 18 18 17 17 17 17 18 18 19 18 18 20 23 26 29 30 31 28 23 26 33 37 40 43 45 49 47 41 37 37 37 37 39 41 43 45 46 48 49
22 22 22 21 20 18 17 17 18 18 18 19 19 18 18 20 24 28 30 31 28 24 26 33 36 38 42 45 47 44 39 37 36 36 37 38 40 43 45 47 49 50
22 23 24 24 23 21 20 20 19 19 19 19 20 19 19 19 22 25 28 30 28 24 27 32 34 36 41 45 45 41 37 36 36 36 37 38 40 42 43 46 49 50
22 23 24 26 25 24 24 23 22 21 21 20 20 20 20 19 19 23 26 28 27 25 27 31 33 35 40 44 43 38 35 36 37 37 37 39 40 41 42 45 48 51
23 24 25 26 27 27 26 26 25 24 23 22 21 21 21 19 19 21 24 26 26 26 28 31 32 34 39 44 42 36 35 37 38 37 38 39 40 40 42 44 48 52
25 25 26 26 27 28 28 27 26 25 25 24 24 23 22 20 19 20 23 25 26 27 28 30 33 34 38 44 42 37 35 37 38 38 38 39 39 40 42 44 48 52
27 27 26 26 27 28 29 29 28 27 26 26 26 26 24 22 20 20 22 25 26 27 28 30 33 35 38 43 42 38 36 37 39 39 39 39 39 39 41 43 47 50
31 29 27 26 26 27 29 30 29 29 28 27 27 27 26 24 21 20 23 25 27 27 27 30 34 35 37 42 43 39 37 38 39 39 40 40 38 38 39 41 44 46
36 33 30 28 27 28 28 30 30 30 29 28 28 27 27 25 22 21 23 25 27 27 26 29 34 36 38 42 43 40 38 38 38 40 41 40 39 38 38 39 41 43
38 35 32 30 30 29 29 29 29 29 29 29 28 28 27 26 24 22 23 26 27 28 27 29 33 36 38 41 42 41 40 39 39 41 42 42 40 39 38 39 39 41
38 36 34 32 32 32 32 31 29 28 28 28 28 28 27 27 25 23 24 26 27 27 28 29 32 36 38 40 41 41 41 40 41 42 42 43 42 40 40 39 39 40
37 36 34 34 34 34 33 32 29 27 25 25 25 26 26 26 26 25 25 27 27 27 29 30 32 35 38 39 40 40 40 41 42 42 42 43 43 42 41 40 40 40
37 35 35 35 35 35 35 33 31 29 26 23 22 22 23 24 25 25 26 28 28 28 29 30 32 34 36 38 39 40 40 41 43 44 44 44 44 42 41 41 41 42
37 37 36 36 36 36 37 37 35 32 28 25 23 21 20 21 21 23 24 27 29 29 30 30 31 33 35 37 38 39 40 41 43 44 46 45 43 42 42 42 43 44
38 39 38 37 37 37 38 39 39 37 32 29 26 23 22 21 21 22 24 26 28 29 30 30 31 32 33 35 37 38 40 41 42 44 47 47 44 42 42 43 44 46
40 40 39 38 38 38 39 41 41 40 37 33 30 26 24 24 24 25 27 28 28 29 29 30 29 30 32 35 36 37 39 40 41 43 46 47 45 43 42 43 45 47
41 41 41 40 39 39 40 42 42 41 39 37 34 31 28 26 25 26 28 29 29 29 29 28 28 29 32 35 36 36 38 39 40 42 44 46 45 43 43 43 44 45
41 42 41 41 40 40 40 42 43 42 41 38 36 35 33 30 27 26 27 29 29 28 27 27 26 28 31 34 35 36 36 37 39 41 43 44 43 43 43 44 44 44
42 42 42 41 41 42 43 44 44 43 42 40 39 37 36 34 31 28 27 28 29 28 26 25 25 26 29 33 35 35 34 35 37 39 42 43 41 41 43 44 45 45
44 43 43 43 44 46 46 45 44 43 42 42 42 40 37 36 34 33 30 28 28 27 26 25 24 25 27 31 34 35 34 34 36 38 40 41 40 40 42 44 45 45
46 46 45 46 47 48 47 46 45 44 44 44 44 42 40 37 36 35 34 32 29 28 26 25 23 24 26 28 31 34 34 34 34 36 39 40 40 40 42 44 44 45
47 48 48 48 48 49 48 47 46 46 46 46 45 44 42 40 38 37 36 34 32 30 28 25 24 24 25 27 29 32 34 34 34 35 38 40 41 41 42 43 44 46
49 49 49 48 48 48 48 46 46 47 49 49 48 47 45 43 42 40 38 36 35 32 30 28 26 24 25 26 28 30 32 33 33 35 38 40 41 41 43 44 45 47
48 49 49 47 45 45 45 44 44 46 48 49 48 48 48 47 46 44 41 38 36 35 33 31 29 26 24 25 27 28 31 33 33 35 38 40 41 42 43 45 46 48
44 46 48 46 43 42 42 43 44 45 47 48 49 49 48 48 49 48 44 41 39 38 35 33 32 30 27 26 26 27 30 33 34 35 37 39 42 43 44 45 47 50
44 46 47 45 42 41 42 43 43 44 46 47 49 49 49 48 48 48 46 45 43 41 39 36 35 33 32 30 28 28 29 32 34 34 35 39 42 44 46 47 48 52

ECMWFNIL_prec_cthk_036.txt.gz
RH
18 18 17 18 18 18 19 18 18 18 18 20 19 19 19 18 19 22 24 26 28 30 26 20 22 27 32 39 44 47 47 46 47 49 51 47 39 39 42 42 45 47
18 18 17 18 19 17 17 17 17 17 17 18 18 18 19 18 18 19 22 26 29 30 27 20 21 26 31 36 41 46 48 47 47 50 51 45 37 38 41 40 41 41
18 19 19 18 18 16 17 18 18 17 17 17 18 18 19 18 17 17 19 24 28 31 30 23 22 25 30 35 39 45 49 48 47 49 50 44 37 38 40 40 43 43
18 20 20 18 18 18 19 20 19 18 18 17 17 17 18 18 18 16 16 20 24 29 31 26 23 24 29 33 38 44 48 48 47 47 50 47 39 37 38 39 44 47
18 19 19 21 22 21 22 23 22 21 20 19 18 18 18 18 18 17 16 16 20 25 28 25 23 25 27 31 37 42 45 48 47 45 49 49 40 36 38 37 40 43
18 18 19 21 22 22 23 24 24 24 23 22 21 20 20 18 18 18 16 15 17 21 25 25 24 25 26 29 36 40 42 45 46 45 48 47 40 36 37 37 37 38
19 20 21 22 23 23 23 25 25 26 26 25 24 23 23 21 19 18 17 16 15 18 22 24 24 26 27 28 33 39 42 42 42 44 45 43 40 37 37 37 37 37
23 24 25 25 25 25 25 25 25 25 26 26 26 26 25 24 22 20 18 16 15 16 19 23 25 27 28 28 30 37 41 40 39 39 38 38 39 38 37 37 38 37
26 26 25 25 25 25 25 25 25 25 25 26 26 27 27 26 24 22 20 17 16 16 18 21 24 27 28 28 29 34 40 41 39 35 33 35 38 39 39 38 38 37
30 28 26 25 25 25 25 25 24 24 23 24 25 26 27 27 26 25 23 20 18 17 18 20 23 26 28 29 29 33 38 41 41 36 33 34 37 39 40 40 39 38
34 32 31 30 28 27 25 24 24 24 24 24 24 25 26 27 27 27 26 24 22 20 19 21 23 26 28 29 29 32 36 40 41 39 34 33 35 38 41 42 41 39
34 34 35 34 33 31 30 28 26 25 25 24 24 24 25 26 26 27 27 26 26 24 22 23 24 26 28 29 29 31 34 38 41 41 37 34 35 37 40 42 42 41
34 34 35 35 34 34 33 31 28 27 27 26 25 24 24 23 23 24 25 27 27 27 25 25 25 26 28 29 29 30 33 36 40 41 39 36 35 35 38 41 42 42
36 35 36 36 35 33 33 32 29 28 29 29 28 26 25 23 21 21 22 24 26 26 26 26 26 27 28 29 29 30 32 35 38 41 40 38 37 36 37 39 41 42
38 37 36 36 35 33 31 30 29 29 31 32 31 29 28 26 23 21 20 20 21 23 24 24 26 28 28 28 29 29 30 33 37 40 40 40 38 37 38 39 40 41
41 39 37 37 35 32 30 29 30 32 33 34 33 33 33 31 27 23 22 21 20 21 22 23 24 27 28 28 28 28 29 32 35 38 39 39 39 39 39 39 40 40
43 40 38 36 34 33 32 32 33 34 35 36 37 37 37 37 33 28 24 23 21 21 22 23 24 26 28 28 28 28 29 31 33 36 38 38 38 39 39 39 39 40
43 40 39 37 35 34 34 35 37 37 37 37 38 39 39 39 38 34 29 26 23 22 22 23 24 26 27 27 27 27 28 30 32 35 37 37 37 37 39 39 39 39
42 41 39 37 36 36 37 38 39 39 38 39 41 42 42 41 40 39 36 31 27 24 23 23 23 24 25 25 24 25 26 28 31 34 35 35 36 36 38 38 39 40
41 41 41 39 39 39 40 40 41 41 42 43 44 44 43 44 43 42 40 37 32 29 26 24 23 23 22 22 22 22 23 25 29 32 34 35 35 36 36 37 38 39
41 42 42 43 42 42 42 43 43 44 45 46 47 45 45 46 46 44 42 39 37 34 30 28 27 25 22 21 21 21 22 24 27 30 33 34 34 34 35 36 36 37
39 41 42 42 43 43 43 44 44 44 45 47 47 47 47 47 47 46 43 42 42 40 36 32 31 30 26 21 20 21 23 24 25 28 30 32 33 33 35 37 37 37
38 39 41 42 43 43 43 43 43 44 45 46 47 47 47 47 47 47 46 45 44 42 40 37 36 35 32 27 22 21 22 23 24 26 28 30 32 34 36 38 39 39
40 41 42 43 43 42 41 42 42 43 45 46 46 46 47 47 48 48 48 47 44 43 43 42 40 39 37 34 29 24 22 23 24 26 26 29 33 36 38 41 42 40
41 42 43 44 44 43 42 42 43 45 46 47 47 47 47 49 50 50 50 49 48 49 49 48 47 46 42 38 35 31 28 26 27 28 27 28 33 36 37 41 43 40
39 40 40 42 43 43 44 45 46 47 47 45 45 46 47 48 49 49 50 51 51 54 53 50 50 52 50 44 39 36 35 32 30 30 29 30 32 34 35 38 41 40

ECMWFNIL_prec_cthk_042.txt.gz
RH
15 15 14 13 14 13 13 14 14 14 15 16 15 14 15 17 19 22 23 23 23 22 21 22 26 28 31 32 32 33 35 38 41 43 41 41 41 39 37 36 38 44
14 15 14 14 14 13 12 13 13 13 14 15 15 14 14 14 17 18 21 23 23 22 20 20 22 26 30 31 31 30 31 33 37 41 40 41 42 39 37 36 36 40
14 14 15 14 13 12 11 12 13 14 15 15 16 16 16 16 16 17 19 20 22 21 20 19 21 24 28 30 30 28 28 29 32 37 39 40 42 41 37 37 37 36
13 13 13 13 11 12 12 12 13 15 16 17 16 17 18 19 19 19 18 19 19 19 18 18 20 23 26 29 31 28 27 27 28 32 36 39 41 42 39 39 41 38
12 12 12 12 12 12 12 13 13 14 16 18 17 17 18 19 20 21 20 20 19 19 18 17 18 20 25 29 31 30 27 26 27 30 35 37 39 42 41 39 43 44
11 11 12 11 11 12 12 12 13 15 16 17 18 18 18 18 20 20 21 21 20 20 20 18 17 18 21 25 28 30 28 26 26 29 33 36 37 40 42 39 40 44
11 11 11 11 11 12 12 13 14 15 16 17 19 20 20 20 19 20 22 23 22 22 21 19 18 17 17 19 22 26 28 27 25 27 31 35 37 37 40 40 37 40
11 10 11 11 11 12 12 13 14 15 16 18 20 21 22 21 20 20 21 23 24 23 22 21 20 19 18 17 18 20 24 26 26 26 29 33 37 37 36 37 36 36
10 10 10 10 11 11 12 13 15 16 18 20 22 23 23 23 22 21 20 21 23 24 23 23 22 22 21 20 19 17 19 22 24 26 28 31 35 37 35 34 35 34
10 10 10 11 11 12 13 14 16 18 21 23 24 25 26 25 25 25 22 20 22 24 24 24 24 23 22 22 21 19 17 18 21 24 26 29 33 36 36 35 34 34
13 14 14 14 14 15 15 17 19 21 23 24 23 25 27 28 28 27 25 21 19 21 23 23 24 24 25 24 24 22 20 18 19 21 24 27 30 34 37 36 36 35
18 19 20 18 18 18 19 20 22 24 24 23 23 24 27 30 30 27 25 22 18 18 20 21 22 24 25 25 25 25 24 21 19 19 21 24 28 31 34 37 37 36
23 23 24 23 21 20 22 24 24 24 25 25 25 26 26 27 29 27 24 22 20 19 19 20 20 22 23 26 27 28 28 26 22 20 20 22 25 28 32 36 37 37
29 27 27 25 24 23 24 26 26 26 27 28 28 30 28 28 29 29 27 25 23 22 21 21 20 21 22 24 26 28 30 29 26 24 23 23 24 26 30 34 36 37
35 33 31 29 27 27 26 27 27 28 29 30 31 33 34 33 33 32 31 30 29 26 25 24 23 20 20 21 23 25 27 29 28 27 26 26 26 27 29 32 35 38
40 38 36 33 30 29 29 28 29 30 31 32 33 35 37 37 36 34 33 32 33 32 31 28 26 22 19 18 19 19 21 24 26 27 28 28 27 28 29 32 34 36
45 42 40 37 33 30 30 30 31 32 34 35 37 38 39 39 38 36 34 33 34 35 35 33 30 26 22 18 17 16 17 19 20 23 25 27 27 27 28 29 30 33
46 45 44 41 37 33 31 31 32 34 35 36 38 40 40 39 38 37 36 35 34 35 36 37 35 32 28 24 20 17 17 17 18 20 22 24 25 26 26 26 28 30
44 46 46 43 40 37 34 33 34 34 35 36 38 40 40 38 36 35 36 36 35 35 36 37 38 37 35 32 29 24 21 19 19 19 21 22 23 24 25 25 26 27
40 44 47 48 45 42 39 37 35 33 34 36 38 39 38 36 34 34 34 35 36 36 36 37 39 39 39 39 37 34 30 27 25 22 21 22 23 23 25 25 24 25
34 40 47 50 49 47 44 40 37 35 36 39 39 38 36 35 35 35 34 35 36 36 37 38 39 40 41 42 42 42 40 38 35 32 29 27 27 27 28 28 28 28
31 38 46 50 51 50 48 44 41 39 38 40 40 39 39 38 37 37 37 37 38 38 39 38 39 40 40 42 44 46 47 45 43 41 40 37 36 35 35 34 33 33
32 38 44 48 50 50 49 47 44 43 42 42 42 42 42 41 41 40 40 40 40 40 40 39 40 42 43 43 44 46 49 49 48 48 47 46 45 44 41 38 37 36
36 41 45 49 49 49 49 48 47 47 46 46 45 45 44 44 44 44 44 43 42 42 42 41 42 44 45 46 47 48 50 51 52 53 53 50 50 51 49 45 42 39
37 43 46 47 48 48 49 49 48 48 49 49 49 48 47 47 48 48 48 48 47 46 45 45 46 47 47 48 50 52 52 53 55 57 56 55 55 55 54 52 49 45
35 39 42 43 44 45 47 47 47 48 50 51 51 51 51 51 52 52 53 54 54 53 51 49 49 51 52 52 52 53 54 55 55 55 55 56 58 58 57 53 50 48

ECMWFNIL_prec_cthk_045.txt.gz
RH
15 15 14 13 12 12 13 13 13 14 15 17 17 16 17 17 17 17 18 20 22 23 23 21 21 24 27 30 32 32 35 37 38 36 37 38 39 41 41 38 37 37
14 13 13 12 12 12 12 12 12 12 12 14 15 15 16 17 17 16 16 17 19 20 22 22 21 21 24 28 31 33 34 35 36 36 36 36 37 39 41 38 35 35
13 13 12 12 12 11 11 11 11 11 11 12 14 16 16 17 17 16 16 16 16 18 19 20 21 20 21 24 28 32 33 33 34 36 36 35 35 37 40 39 36 33
12 12 11 11 11 11 10 11 11 11 11 12 13 14 16 18 18 18 17 17 17 16 17 18 20 19 20 21 24 29 31 31 31 34 36 35 34 35 37 39 37 34
11 11 11 11 12 12 11 11 11 11 10 11 12 14 16 18 19 19 19 18 18 18 17 17 18 18 19 20 21 25 28 29 29 31 35 37 35 35 36 37 38 36
11 11 11 11 11 11 11 10 10 10 10 11 12 13 15 17 19 20 20 19 19 19 19 18 18 17 17 18 19 22 25 27 27 27 30 34 35 35 36 36 37 38
13 12 12 12 11 11 11 10 10 10 11 11 12 13 15 16 18 18 20 21 21 20 20 19 19 17 16 16 17 18 21 24 25 25 26 29 32 35 36 37 36 37
14 13 13 12 12 11 11 10 10 10 11 12 13 13 14 15 17 18 19 21 22 21 20 19 19 19 18 17 16 16 17 19 21 23 25 26 28 31 35 37 37 37
15 14 14 13 13 12 11 11 10 11 11 12 13 15 16 17 18 19 21 22 23 23 22 20 19 18 18 18 18 18 17 17 18 19 21 23 25 28 31 34 37 37
16 14 14 14 13 13 11 11 11 11 12 14 15 17 19 19 19 21 23 24 24 23 22 21 19 18 18 18 18 19 19 18 18 17 18 20 22 24 27 29 33 36
17 15 14 13 13 13 12 12 13 14 14 15 17 19 20 20 20 22 24 25 23 22 20 19 18 17 18 18 18 19 19 20 20 18 18 18 19 21 23 25 29 32
18 17 17 16 16 16 15 15 16 16 17 18 19 21 21 22 23 24 25 24 23 21 19 18 17 17 16 17 17 18 19 20 21 20 19 18 18 19 20 22 24 27
24 22 21 20 19 18 17 18 19 19 20 21 22 23 23 24 25 26 25 23 22 21 20 18 17 17 16 16 17 18 19 21 21 21 21 20 19 19 19 20 21 24
30 27 24 21 20 20 20 20 21 23 23 23 23 24 24 25 25 26 24 23 22 21 20 19 19 19 19 18 18 18 19 20 21 21 21 21 20 19 20 20 21 22
33 31 29 27 25 23 22 22 23 24 25 25 24 24 24 25 26 26 24 23 23 23 22 23 23 23 21 19 18 18 18 18 19 20 20 20 20 20 20 21 22 22
37 35 35 34 32 29 25 24 24 25 25 25 25 24 24 25 26 27 27 26 25 26 26 27 28 27 25 23 21 19 18 18 18 18 18 17 18 19 20 21 21 21
43 42 40 39 37 34 30 26 25 26 26 26 26 25 25 26 27 28 29 30 29 29 30 30 30 29 29 28 27 25 23 21 19 18 17 17 17 18 19 19 19 20
47 46 44 42 40 39 35 30 28 28 28 28 28 28 28 28 29 30 31 31 31 31 32 32 32 32 32 32 32 32 31 28 26 24 22 21 20 19 19 21 21 23
46 46 45 44 42 41 40 37 33 31 31 30 29 29 29 30 31 31 31 33 33 32 33 33 33 34 35 36 37 38 38 37 35 33 32 29 27 26 25 26 27 28
42 43 44 43 42 42 44 43 39 34 32 32 32 31 31 32 33 34 33 33 33 34 34 33 33 34 35 37 39 41 43 43 42 41 40 39 38 36 34 34 33 33
36 38 40 41 40 40 43 46 44 39 36 35 34 33 33 33 34 35 34 33 33 35 35 34 33 34 35 37 39 42 45 46 46 46 46 46 45 44 44 43 43 42
35 35 38 38 37 38 42 47 48 44 40 37 36 37 36 36 36 34 33 32 33 34 35 35 35 36 37 39 41 44 47 48 50 50 51 51 50 50 50 50 51 51
35 36 37 36 34 35 39 46 50 49 45 41 39 39 39 38 37 35 34 34 34 35 35 36 38 40 41 41 43 45 48 50 52 54 54 54 54 54 54 54 54 54
35 35 36 35 34 34 38 44 49 51 50 47 43 41 41 40 39 38 37 36 36 37 38 39 40 42 43 44 45 47 48 50 52 54 55 55 57 58 58 57 56 55
35 35 35 36 37 38 39 42 46 49 50 50 47 46 44 43 42 42 41 41 40 41 43 44 44 46 46 47 48 49 51 53 55 55 55 56 57 58 59 58 57 56
34 35 36 36 38 42 43 43 45 47 48 50 49 48 46 45 44 44 45 45 46 46 46 47 47 49 51 52 52 52 53 54 56 56 56 58 59 58 58 58 58 59

ECMWFNIL_prec_cthk_048.txt.gz
RH
18 17 16 16 15 15 15 15 14 13 13 14 15 16 16 17 17 19 20 21 21 21 22 21 21 27 30 32 35 36 37 38 38 38 38 38 39 40 39 38 37 38
18 17 17 16 16 16 16 15 14 13 12 13 14 14 16 17 17 18 18 19 20 21 23 23 21 22 25 28 32 34 35 38 40 39 39 39 39 40 39 38 37 36
19 19 17 16 16 15 15 15 15 13 12 13 14 14 15 16 16 16 17 17 19 20 22 24 23 22 22 23 27 31 33 35 38 40 40 40 40 41 40 39 38 35
21 19 17 16 15 14 14 14 14 13 12 12 13 14 14 14 15 15 16 17 17 19 20 22 23 23 22 21 22 26 30 33 35 37 39 40 40 41 41 40 40 38
21 19 17 16 15 14 14 13 13 12 12 11 11 13 13 14 14 15 16 17 17 17 18 19 20 21 21 20 20 22 25 29 31 33 37 38 39 39 41 41 41 40
21 19 18 17 16 15 14 13 12 11 11 10 10 11 13 13 14 15 16 17 18 17 17 18 18 19 19 19 19 19 21 24 26 28 31 34 36 37 38 40 40 40
20 19 18 18 18 17 16 14 13 12 10 10 10 10 11 12 13 14 15 17 19 18 18 18 18 18 17 17 17 18 19 21 23 25 26 28 32 34 34 36 38 38
18 18 18 18 19 19 18 16 15 13 11 10 11 10 11 11 12 13 14 16 17 18 18 18 18 17 18 17 17 17 18 19 20 22 23 25 27 31 32 33 34 35
19 18 18 18 19 19 18 17 15 14 13 12 11 11 11 12 13 14 16 16 17 18 18 18 18 18 18 19 18 18 18 18 18 19 21 22 23 25 28 31 32 32
20 18 18 17 17 17 16 16 16 16 15 13 12 13 13 14 15 16 17 18 18 18 19 19 19 19 19 20 20 20 20 19 19 19 18 19 20 21 23 26 29 30
21 19 18 17 16 16 16 16 16 16 15 15 15 15 15 16 17 18 17 18 19 19 20 19 18 19 19 19 19 20 20 20 20 20 19 18 18 19 19 20 23 26
21 20 19 17 16 16 15 16 16 16 17 17 17 16 17 18 18 18 18 19 19 20 19 19 18 18 18 18 18 19 20 21 21 21 20 19 18 18 18 18 19 21
21 20 19 18 17 15 15 17 18 19 20 19 18 18 18 18 18 18 19 20 20 20 18 17 17 17 17 17 17 18 19 20 21 21 21 20 20 19 18 19 19 21
21 21 19 18 18 17 17 19 21 22 22 21 20 19 19 19 18 19 21 22 21 19 17 16 17 18 18 17 18 18 18 19 20 21 21 21 21 20 19 19 19 20
26 25 23 22 22 21 21 22 24 24 24 23 22 21 20 20 20 21 23 23 21 19 18 17 18 19 18 18 17 17 18 17 18 20 20 20 20 19 20 19 19 19
32 31 30 29 27 26 25 25 25 26 27 27 25 24 23 22 23 24 25 23 21 20 20 21 21 22 21 20 20 19 19 19 18 18 19 19 20 19 19 19 19 20
36 36 36 35 34 33 31 29 29 29 30 30 29 27 25 25 25 26 25 24 22 21 23 24 25 25 25 24 25 25 25 25 24 23 22 21 21 21 21 22 23 24
39 39 39 40 40 41 39 36 33 32 32 33 31 29 27 26 26 26 26 25 25 24 25 25 26 26 26 27 28 28 30 32 32 31 30 28 27 27 27 27 28 29
43 43 43 44 45 45 45 43 40 37 35 34 32 30 28 28 27 27 28 27 26 26 26 26 26 27 28 29 30 32 35 38 40 41 41 40 40 39 38 38 37 37
45 46 47 48 48 47 46 46 45 42 38 35 34 32 30 29 28 29 30 29 28 28 28 27 28 28 30 32 33 36 39 43 45 46 47 47 48 49 49 49 48 48
43 45 46 47 48 48 47 45 45 45 43 38 35 34 32 30 29 30 32 31 31 30 29 29 29 30 31 34 36 39 42 45 47 48 49 50 50 52 52 53 53 54
41 41 43 45 46 46 46 45 44 46 47 44 40 37 35 33 32 32 33 34 33 33 32 31 31 33 34 36 39 42 44 46 47 48 49 50 51 52 53 54 55 56
40 40 41 42 43 43 43 43 43 44 48 49 46 42 38 36 35 35 35 37 37 35 34 34 34 36 37 39 42 45 47 49 49 48 49 49 51 53 53 53 54 55
41 40 40 41 40 39 39 40 40 42 47 51 51 47 42 39 37 38 39 40 39 37 36 36 38 40 42 43 45 48 49 50 50 49 50 50 52 53 53 54 55 56
41 41 41 41 40 39 37 36 37 40 45 50 53 52 48 44 41 41 40 40 40 38 38 40 42 44 46 47 48 50 50 52 52 51 50 51 52 53 54 55 57 58
41 40 39 39 39 40 39 37 36 39 43 48 53 54 53 50 46 43 42 41 41 40 40 41 44 46 48 49 51 51 51 51 52 51 52 53 53 54 54 56 58 60

ECMWFNIL_prec_cthk_051.txt.gz
RH
24 23 22 21 20 19 18 19 19 19 19 20 20 20 20 19 19 19 20 22 23 22 22 23 23 23 27 33 36 37 38 38 37 39 41 42 42 41 40 39 38 37
23 22 22 22 21 20 19 18 19 18 18 18 18 18 18 19 19 19 20 22 23 22 23 23 23 22 23 27 32 35 36 37 36 37 40 42 43 43 41 40 39 38
23 22 22 22 21 20 19 18 19 18 17 17 17 17 16 16 17 18 19 21 22 23 23 23 23 23 22 23 27 30 32 34 34 35 37 39 42 43 42 41 40 40
23 21 21 21 20 20 19 19 19 18 18 17 16 15 15 15 15 16 18 20 20 21 21 21 23 23 22 21 22 25 28 30 32 34 35 35 38 41 42 42 42 41
22 21 20 20 20 20 20 19 18 18 18 17 16 15 15 14 14 16 17 17 18 18 18 19 21 23 23 21 19 20 23 27 30 32 33 33 35 37 39 41 42 41
23 22 21 20 19 20 20 18 17 17 17 17 16 15 14 14 14 15 16 15 15 16 16 17 19 21 22 21 19 18 20 24 27 30 31 31 32 33 35 38 39 40
24 23 22 21 21 21 20 18 17 16 16 16 16 15 14 13 14 14 15 14 14 14 15 16 17 19 20 20 20 19 19 22 25 28 30 30 30 31 32 34 37 38
24 23 22 22 21 21 20 19 18 16 16 16 15 14 13 13 13 14 14 14 14 14 15 16 16 17 18 19 19 19 20 21 23 25 27 28 29 29 30 31 33 35
25 23 22 22 21 20 19 18 18 17 17 16 15 14 13 13 13 13 14 14 14 14 14 15 16 17 17 18 19 19 19 20 21 22 24 24 26 28 29 30 31 32
25 23 22 21 21 19 18 17 17 18 17 17 16 14 14 13 13 13 13 14 14 14 14 15 16 17 18 19 19 20 20 19 20 20 21 21 22 23 25 28 29 31
24 23 22 21 20 20 18 18 17 18 17 17 16 15 14 13 13 14 15 16 15 15 15 16 17 18 19 19 19 19 20 20 20 19 19 19 20 20 21 23 26 28
23 22 21 20 20 20 20 19 18 17 17 17 17 16 15 14 15 16 17 17 17 17 17 18 19 19 19 19 19 18 19 19 20 20 20 20 20 20 20 21 22 24
22 22 21 20 21 21 21 20 19 18 17 17 17 17 16 16 16 17 18 17 17 18 19 19 20 19 18 18 17 17 17 18 19 20 20 21 21 20 21 21 21 22
22 22 22 21 21 22 22 22 21 19 18 18 18 18 18 17 18 18 18 17 18 19 20 20 19 18 16 16 16 16 16 17 18 19 20 20 21 21 21 21 21 21
22 22 22 23 22 23 23 23 22 21 21 21 21 20 20 19 20 19 18 18 19 21 21 19 17 15 15 15 15 15 16 16 17 19 19 20 21 21 22 22 21 21
21 22 22 23 23 23 23 23 23 24 25 25 25 23 21 21 21 20 19 19 21 21 21 18 17 15 15 15 15 15 15 15 16 17 18 19 20 21 21 21 21 20
21 21 21 22 22 23 23 25 27 27 28 29 28 26 24 23 22 21 20 21 23 22 21 18 17 16 16 16 16 16 16 16 16 16 18 19 20 21 21 22 23 24
27 25 24 24 25 26 28 29 30 31 31 32 31 29 27 25 24 22 22 23 25 24 21 19 19 18 18 19 19 19 19 20 20 21 22 22 22 23 24 26 28 30
36 35 34 34 33 33 33 32 32 33 33 34 33 32 31 29 27 24 24 25 26 24 23 23 23 22 22 23 23 24 24 26 28 30 30 30 30 31 33 34 35 36
41 41 42 43 43 41 40 39 38 38 37 36 36 35 34 33 30 27 26 26 26 26 27 26 25 25 26 26 26 27 28 32 35 38 39 41 42 44 45 46 47 48
43 44 45 47 48 48 48 47 46 45 43 41 39 38 36 35 32 29 27 27 28 30 30 28 26 26 27 28 28 30 33 37 40 42 45 46 48 49 51 52 53 54
46 47 47 48 49 49 50 50 49 49 47 46 43 39 39 37 34 31 29 28 30 33 32 29 27 27 28 29 31 33 37 40 43 45 46 47 49 50 51 52 53 54
45 46 46 48 48 49 49 49 50 49 49 50 47 44 41 38 35 32 30 30 32 33 31 29 27 27 29 31 34 37 40 42 44 45 46 47 48 49 50 52 54 54
42 42 43 45 46 48 48 48 48 48 48 48 49 48 44 39 36 34 32 32 33 32 32 30 29 29 31 34 37 40 42 43 45 45 45 45 47 48 49 51 53 54
41 41 42 43 43 44 44 45 45 45 45 46 47 49 49 45 40 37 36 35 35 35 35 34 32 32 34 37 39 42 43 44 45 45 45 46 48 49 50 51 52 53
40 41 43 43 44 43 42 42 43 43 43 43 43 46 51 51 47 42 39 38 38 39 40 39 38 37 38 39 41 43 44 44 45 44 45 48 50 51 51 52 53 54

ECMWFNIL_prec_cthk_057.txt.gz
RH
23 23 23 23 23 22 22 23 23 23 24 24 24 24 24 23 23 23 24 26 27 28 28 29 29 29 28 29 30 32 34 35 37 39 39 40 41 41 41 41 42 43
25 24 24 24 24 24 23 24 24 24 25 25 25 24 24 23 23 22 22 23 25 26 27 27 27 27 28 28 28 31 32 34 36 37 39 39 40 42 41 41 42 43
28 27 26 25 24 24 24 24 24 25 25 26 25 25 23 23 21 21 21 22 23 24 24 25 25 25 25 26 26 27 29 32 33 35 37 39 40 41 42 42 43 44
28 28 26 25 24 24 25 24 24 24 25 25 25 24 23 21 21 21 21 21 21 21 22 23 23 23 23 23 23 23 25 28 30 32 34 37 39 40 41 42 42 43
27 27 27 26 25 24 24 24 24 23 23 23 23 23 22 20 20 21 21 20 20 20 21 21 21 21 21 21 20 20 22 24 27 29 31 33 36 38 39 41 41 42
26 26 26 26 25 23 23 22 22 22 22 22 22 22 21 20 21 21 21 20 19 19 19 20 20 20 20 19 19 18 20 21 23 26 28 30 32 34 36 38 40 41
25 25 26 26 26 24 23 22 21 21 21 21 21 21 20 21 21 21 20 19 19 19 18 18 18 18 19 18 18 17 18 20 21 23 26 28 29 31 32 34 36 38
25 25 25 26 26 25 23 22 20 19 19 19 19 20 20 20 20 20 19 19 19 18 17 17 17 17 18 18 17 17 18 20 20 21 23 26 28 28 29 31 32 35
24 24 25 25 25 25 24 22 20 19 19 18 18 19 19 19 19 19 18 18 18 17 16 16 16 16 17 17 18 18 20 21 21 20 21 23 26 28 29 29 31 32
24 24 24 24 25 24 24 23 22 20 19 18 18 18 17 18 18 18 17 17 17 16 15 15 14 15 16 17 18 19 20 22 23 21 21 21 24 26 27 28 30 31
23 23 23 23 24 24 23 23 23 22 21 19 18 18 16 16 16 16 15 15 15 15 14 14 14 14 15 16 17 19 21 23 23 22 21 20 22 24 25 27 28 30
23 23 22 23 23 23 23 23 23 22 21 20 20 18 16 15 15 14 14 13 14 14 14 13 13 13 14 16 17 19 20 22 23 22 20 20 20 21 23 24 26 28
23 22 21 22 22 23 23 22 22 22 21 21 20 19 17 15 14 13 13 12 12 12 12 12 12 13 14 16 17 19 21 21 22 22 21 20 20 20 21 22 24 26
23 23 22 22 22 22 22 22 22 22 22 21 21 19 18 16 15 14 12 12 12 12 12 11 12 13 15 16 17 19 20 21 20 20 19 19 19 19 20 21 21 22
24 24 24 23 22 22 22 22 22 22 22 22 21 20 18 17 15 14 13 12 12 11 12 12 12 14 15 16 17 18 20 20 19 17 16 16 16 18 18 19 19 19
24 23 24 24 23 23 22 22 22 22 22 21 21 20 19 17 16 14 13 12 12 12 12 13 14 15 16 16 17 18 19 19 17 15 15 14 15 16 17 19 19 18
25 23 23 24 24 24 23 23 22 22 21 21 21 20 20 18 17 15 14 12 12 12 13 14 15 16 16 16 17 19 19 18 15 14 14 13 14 15 16 17 19 19
27 26 25 24 24 24 23 23 22 22 21 21 21 20 20 19 18 17 14 13 13 13 14 15 16 16 16 16 18 19 19 17 15 14 13 14 14 14 15 16 18 18
29 28 26 25 23 23 23 23 22 21 20 19 20 20 20 20 20 18 16 15 14 14 14 16 17 18 17 17 18 20 19 17 15 14 14 14 14 14 14 15 16 16
30 29 27 25 23 23 23 22 21 20 19 19 20 20 20 20 21 21 19 17 16 16 17 18 19 19 17 18 20 20 20 17 15 15 15 15 14 14 14 14 14 15
29 28 26 24 23 22 22 21 20 19 19 19 19 20 20 20 21 21 21 20 20 21 21 21 20 20 19 19 21 21 21 19 17 16 16 15 15 14 14 14 14 15
27 26 25 24 23 23 21 20 19 19 19 20 20 20 20 20 21 21 22 23 24 25 26 24 22 21 21 21 22 22 23 21 18 17 17 16 16 16 15 15 16 18
25 24 23 23 22 21 19 19 19 19 19 19 19 19 20 20 21 22 24 26 28 29 29 27 24 23 22 22 23 24 24 23 20 19 20 19 19 19 19 19 21 25
24 23 22 22 21 20 20 19 19 19 19 19 20 21 22 23 24 25 27 29 30 32 32 30 28 27 25 25 26 26 26 25 23 23 23 23 23 24 24 25 27 30
25 25 25 25 25 25 25 25 26 25 26 27 27 28 29 31 31 32 32 33 33 34 35 34 33 32 30 29 29 29 30 29 27 28 28 28 27 27 27 28 29 34
28 29 30 31 31 32 33 33 34 34 35 36 37 39 40 41 41 41 40 39 37 37 37 37 36 35 33 32 31 31 33 32 31 31 31 30 30 29 29 30 32 35

ECMWFNIL_prec_cthk_060.txt.gz
RH
20 20 20 20 20 20 21 20 20 21 20 19 20 21 22 23 24 25 25 26 28 30 29 29 29 29 29 31 31 31 33 35 35 34 35 38 39 39 41 42 43 42
22 21 21 21 21 21 21 21 21 21 20 19 20 21 21 22 23 23 23 24 27 28 29 30 30 30 31 32 31 30 33 35 34 33 34 36 37 39 40 42 42 41
23 22 22 22 21 20 20 20 21 22 21 20 20 21 22 22 23 23 23 23 25 26 27 29 30 30 31 31 31 30 31 33 33 32 33 35 37 39 41 43 44 43
24 23 22 22 22 21 20 21 21 21 21 21 21 22 22 23 23 23 23 22 23 23 24 26 28 29 29 29 29 30 29 29 31 31 31 33 36 37 38 41 43 44
25 24 23 22 22 22 21 21 21 21 21 21 22 23 23 23 23 22 22 21 22 21 22 23 25 26 27 26 27 28 27 27 28 29 29 30 33 34 37 38 39 40
26 26 25 24 24 23 22 21 21 21 22 22 22 23 23 23 23 22 22 21 20 21 21 22 23 23 23 24 24 24 25 27 28 26 26 28 29 31 35 36 37 37
26 26 26 26 26 26 24 23 22 22 23 23 23 22 23 23 22 22 21 20 18 19 20 20 21 21 20 21 22 22 22 23 24 23 24 26 27 28 31 32 33 34
25 26 26 27 27 27 25 24 23 22 22 23 22 22 21 22 22 22 21 19 18 18 19 19 18 19 19 19 20 20 19 19 20 19 21 24 26 27 28 29 30 32
25 25 25 26 27 27 26 24 23 22 22 22 21 21 21 20 21 21 20 18 18 18 18 17 17 18 17 18 18 17 17 17 18 18 19 23 25 26 27 29 30 31
24 24 24 24 25 25 24 24 24 22 21 20 20 21 20 19 19 20 19 17 17 17 17 16 17 16 16 16 16 16 16 16 17 17 18 21 24 25 27 30 31 32
23 23 23 23 23 24 25 25 26 25 22 19 18 20 20 19 18 19 19 18 16 16 17 16 16 16 16 16 16 16 16 16 17 18 18 20 22 23 26 28 30 31
22 22 23 22 22 23 26 26 26 26 24 20 17 18 19 18 18 17 17 17 16 15 15 15 15 15 15 15 15 15 15 16 17 18 19 20 20 21 23 25 26 28
21 21 22 22 22 23 25 27 26 26 26 23 18 16 17 18 18 17 16 16 15 14 14 15 15 15 14 14 14 14 15 16 17 18 20 21 20 19 20 22 24 24
21 21 21 22 21 21 23 25 26 26 27 25 21 17 18 19 18 17 15 14 14 14 13 14 14 14 14 13 13 13 15 16 18 19 19 20 19 18 18 18 20 21
22 22 21 21 21 21 21 23 25 25 25 25 21 18 18 19 19 19 17 14 13 13 13 13 14 13 13 12 12 13 15 16 17 18 20 19 19 18 16 16 17 18
25 23 21 20 21 21 20 21 22 23 24 23 20 19 19 19 19 20 20 17 14 12 12 13 12 12 11 11 12 13 15 16 17 18 19 19 18 16 15 14 15 16
26 25 23 21 20 20 20 21 21 22 22 22 21 20 20 19 19 19 20 21 18 13 12 12 12 11 11 10 12 14 15 16 17 18 19 18 17 15 14 14 13 14
26 24 24 23 21 20 20 20 21 21 21 21 21 20 20 20 20 19 19 21 21 18 15 13 12 11 11 11 12 14 15 15 16 18 19 17 15 13 12 12 12 13
27 24 23 23 22 21 21 21 21 21 21 21 21 21 21 20 20 20 20 19 20 20 17 15 14 12 11 12 13 14 15 15 16 17 18 17 14 12 12 12 12 13
30 25 22 23 22 22 21 21 21 21 21 21 21 21 20 20 20 20 20 19 20 20 18 16 15 14 11 12 14 14 15 15 16 17 19 17 14 13 13 13 13 13
31 28 24 23 23 22 22 21 21 21 22 22 22 21 21 20 19 19 19 20 19 20 19 17 16 15 12 13 14 15 16 16 16 18 20 19 16 14 14 14 14 14
33 30 27 25 25 24 24 23 22 21 22 22 22 22 21 20 19 18 19 19 19 19 19 19 17 16 14 14 15 17 18 17 18 20 22 20 18 16 16 16 15 14
31 29 27 27 26 26 26 25 22 21 21 22 21 21 20 19 18 18 19 19 19 19 19 19 19 18 17 17 18 19 20 19 20 21 22 21 19 18 17 16 16 14
29 26 27 27 27 26 27 25 23 20 20 20 20 20 19 18 18 18 18 18 19 19 19 19 20 20 20 20 21 22 23 23 23 24 23 22 21 19 18 17 16 16
26 23 26 27 27 27 27 25 22 20 19 19 18 18 18 18 18 18 18 18 18 18 19 19 20 21 23 23 24 25 26 27 27 27 26 24 22 20 19 18 18 17
23 22 24 26 27 27 26 24 22 20 20 19 18 18 18 18 18 18 18 18 18 19 20 20 21 23 26 26 27 28 29 29 31 31 29 25 24 22 21 21 20 20

ECMWFNIL_prec_cthk_063.txt.gz
RH
16 15 16 17 16 17 20 22 21 19 18 22 25 25 26 29 31 32 35 35 30 27 27 26 26 27 30 31 30 30 32 33 37 40 41 40 41 43 46 45 45 46
18 17 17 17 17 17 18 21 22 19 17 18 21 25 28 30 29 28 30 33 31 29 29 27 26 27 29 31 31 30 31 32 34 40 42 40 41 44 46 47 46 44
21 19 18 17 17 17 17 19 20 18 17 16 16 21 26 30 29 26 25 28 30 31 30 28 26 28 29 31 31 31 32 33 33 38 40 37 39 44 46 48 47 45
23 21 19 18 18 17 17 19 20 18 18 18 16 17 22 27 30 29 24 22 24 27 28 29 28 29 31 31 32 32 32 33 34 36 37 36 36 39 43 46 47 47
23 21 20 19 19 18 18 19 20 19 18 18 18 18 20 22 27 31 27 22 20 21 24 27 26 27 30 29 30 31 31 32 35 35 32 32 34 36 40 43 43 44
23 21 20 19 19 19 19 18 19 20 20 18 19 22 23 20 21 27 29 24 21 21 23 26 25 25 27 27 26 26 28 31 37 37 31 29 31 36 40 40 40 41
21 20 19 19 19 19 19 19 18 19 20 21 21 23 25 24 20 22 25 25 24 24 24 26 26 24 26 28 25 22 22 24 30 35 33 28 28 32 36 39 40 39
21 20 20 20 20 20 19 19 19 18 18 20 23 23 24 25 23 20 21 22 24 25 24 25 26 23 24 29 28 23 20 20 23 27 26 25 26 28 30 35 39 37
23 22 21 20 22 22 21 21 21 19 17 18 21 24 24 24 25 23 21 20 21 23 21 21 22 21 21 24 25 22 19 19 21 23 22 20 23 26 27 30 34 35
24 24 24 24 24 24 24 25 25 23 20 17 19 23 25 24 25 25 23 20 19 19 18 17 18 19 18 19 21 20 18 16 18 22 23 20 20 23 26 30 33 34
25 26 28 26 25 26 26 27 28 27 24 20 19 22 25 26 26 25 24 21 18 17 17 15 15 16 17 18 19 18 17 15 15 18 20 19 19 20 24 28 33 36
27 27 29 27 26 26 27 28 29 29 27 25 22 21 23 26 27 25 22 19 17 16 16 15 15 15 15 16 19 20 18 16 17 18 18 17 18 19 20 23 27 31
27 27 28 28 27 26 26 27 29 28 27 28 27 23 22 23 26 26 22 17 16 16 15 15 14 14 15 15 16 20 21 18 18 21 22 20 19 18 20 23 25 27
26 26 26 27 27 26 25 26 28 28 26 28 29 27 25 22 23 25 24 19 16 16 16 15 14 13 14 14 14 16 19 17 16 17 21 23 23 21 23 25 26 27
27 27 27 25 25 26 25 24 26 27 26 25 26 28 27 24 22 23 26 25 21 16 16 16 15 13 12 13 14 14 15 16 14 13 16 22 25 25 26 26 25 23
29 27 26 26 24 24 24 24 24 25 25 24 24 25 26 25 22 22 25 28 26 21 16 15 15 14 12 12 13 13 13 14 14 13 13 16 20 24 26 26 24 22
33 29 27 26 24 23 23 23 23 24 23 23 24 24 24 24 23 22 22 25 27 26 21 16 14 13 11 11 12 12 13 13 12 13 14 14 16 19 21 21 21 20
36 33 30 27 24 23 22 20 21 23 23 23 23 24 26 25 24 24 22 21 24 26 25 20 17 14 11 10 11 11 12 12 12 13 14 15 15 17 18 17 15 17
36 34 32 29 25 23 21 19 20 21 23 23 24 25 26 25 22 23 24 22 22 23 24 24 22 18 13 10 10 11 11 11 12 13 15 17 17 17 17 16 13 12
40 36 33 30 26 24 22 20 19 19 21 24 25 26 24 22 20 22 23 22 22 23 24 24 24 23 18 12 10 10 11 12 12 14 17 20 22 20 19 17 14 12
45 41 37 32 28 24 22 20 19 19 20 23 26 25 23 19 18 21 22 21 20 21 24 25 24 24 22 17 12 11 11 11 12 14 16 19 21 21 20 18 15 13
48 45 42 37 31 27 22 20 19 19 19 22 25 27 25 21 18 19 21 21 19 19 22 24 24 23 22 20 15 12 12 13 13 14 16 17 19 19 19 19 17 14
49 47 44 41 36 30 26 22 19 19 19 20 23 26 27 25 21 19 20 20 20 18 18 20 21 21 19 18 16 14 14 14 13 15 17 18 18 19 20 20 18 15
50 47 45 41 38 34 29 25 22 21 21 20 20 22 24 25 24 22 21 21 20 19 17 17 18 19 18 16 16 16 15 15 15 17 19 20 20 20 20 20 19 17
49 48 46 42 38 34 31 28 25 23 23 22 20 20 22 25 27 26 25 23 22 20 18 16 17 18 18 16 16 16 15 16 17 20 23 23 22 22 22 21 20 19
48 47 46 44 41 36 33 30 26 25 26 25 23 22 23 25 27 28 27 26 23 22 21 19 17 17 17 16 15 15 16 16 19 23 26 26 24 24 25 24 22 20

ECMWFNIL_prec_cthk_069.txt.gz
RH
15 15 15 14 14 15 15 17 20 21 21 20 18 19 21 21 21 22 23 23 25 25 26 28 31 32 30 29 33 38 38 36 36 37 40 41 41 42 44 45 47 50
15 14 15 15 15 14 14 14 15 16 16 17 16 15 17 20 20 20 22 24 24 24 25 25 27 29 29 28 29 33 34 34 34 35 35 36 38 40 41 42 44 46
14 14 14 15 15 14 14 13 14 14 14 14 15 14 15 17 18 19 22 25 25 23 23 23 23 25 26 26 27 28 30 31 32 34 34 33 33 37 40 43 43 42
14 14 13 14 14 14 14 13 14 13 13 13 14 14 14 14 15 17 21 25 25 24 23 22 22 23 24 24 25 26 28 28 28 31 32 32 31 32 36 40 42 41
16 14 13 12 13 14 14 14 14 14 13 12 12 13 14 14 14 14 17 22 23 23 22 21 21 23 24 24 24 25 26 26 26 27 29 31 31 30 32 35 38 41
20 17 15 13 12 13 13 13 13 13 13 13 11 12 13 15 15 14 14 17 20 21 22 20 21 23 24 24 25 25 25 26 25 25 26 29 31 30 30 31 33 36
22 20 18 16 13 12 12 13 13 12 13 13 12 11 12 15 16 17 16 16 18 19 20 20 20 22 23 23 24 24 25 25 25 24 24 26 29 29 29 30 30 31
24 22 21 19 17 14 13 12 12 12 12 13 12 11 11 12 14 17 18 19 20 19 18 18 19 20 21 21 21 21 22 23 23 23 23 24 26 27 28 29 30 30
27 25 22 21 19 17 14 13 13 13 12 12 13 12 11 11 12 14 15 18 20 19 19 18 17 18 19 18 18 18 19 19 20 21 21 21 21 23 26 28 29 30
31 28 25 22 21 19 16 14 13 13 13 13 12 12 11 10 11 12 13 15 16 18 19 18 17 16 17 17 16 16 17 17 17 18 18 19 18 19 21 24 27 28
31 30 28 24 21 20 18 16 14 14 13 13 13 12 12 11 11 11 12 14 15 15 16 18 17 15 15 16 16 15 16 16 16 16 16 17 17 16 17 19 21 24
32 31 29 26 22 20 19 18 16 15 14 13 13 12 12 12 12 12 13 14 15 15 15 15 16 16 15 15 15 15 15 15 16 15 15 15 15 14 14 16 17 19
31 31 30 27 24 22 20 19 18 16 15 13 13 13 13 13 13 13 13 14 15 16 15 15 16 17 17 16 16 15 14 14 15 15 15 15 15 14 13 13 15 17
30 31 30 27 25 23 21 20 19 18 16 14 13 13 13 13 13 13 14 14 15 16 16 16 17 18 18 18 17 16 15 14 14 14 15 15 14 14 12 12 13 15
31 32 31 29 26 24 22 21 20 19 18 16 14 13 13 13 14 14 14 15 16 16 17 18 18 18 18 18 17 16 15 14 13 14 14 15 14 14 13 13 13 14
33 34 32 30 28 25 22 22 21 21 20 19 16 15 14 14 15 15 16 16 16 17 17 18 19 18 18 18 17 16 15 14 14 14 14 14 14 14 14 13 13 14
36 35 33 31 29 26 23 21 21 21 21 20 18 16 16 16 16 17 18 18 18 17 17 18 19 18 17 17 17 16 16 15 14 13 13 14 14 14 13 13 13 14
39 37 35 33 31 28 24 22 20 21 21 21 20 19 19 19 19 19 19 19 20 19 18 18 18 18 17 16 16 16 16 16 15 14 13 13 14 14 13 13 13 14
44 40 37 35 32 30 27 24 22 20 19 19 19 19 20 20 20 20 21 22 22 22 21 19 18 18 18 17 17 16 15 16 15 15 13 13 12 13 13 13 12 14
49 44 40 38 35 33 30 27 24 22 20 19 19 19 20 20 20 21 21 22 23 23 23 21 20 19 19 19 19 18 17 16 15 15 14 13 12 12 13 13 13 13
52 47 43 41 39 36 34 31 27 24 22 21 21 20 20 20 20 21 22 22 22 22 23 22 22 21 20 20 20 19 19 18 18 17 16 15 14 13 13 12 12 13
51 49 46 44 42 40 37 35 31 27 24 23 23 23 22 22 21 21 22 22 22 22 22 22 22 22 22 22 21 19 20 21 21 20 19 17 15 14 13 13 13 13
48 48 47 46 45 43 41 39 36 33 29 26 25 24 23 23 23 22 22 22 21 21 21 21 21 21 21 21 21 21 21 22 23 22 21 19 17 15 15 14 14 14
48 47 47 47 47 46 46 45 43 40 36 32 29 27 26 24 23 23 23 22 22 21 20 20 20 21 21 21 21 21 22 23 23 23 23 20 18 17 16 16 16 16
48 48 47 47 47 47 49 50 49 47 43 39 35 32 30 28 26 25 24 23 22 22 21 20 20 20 21 21 21 22 22 23 23 25 25 23 20 17 16 16 16 16
47 48 48 46 46 48 50 51 52 51 49 46 42 38 36 33 30 28 26 23 23 23 22 22 21 20 21 21 22 22 22 23 23 24 24 22 19 17 16 16 15 15

ECMWFNIL_prec_cthk_072.txt.gz
RH
18 19 20 21 23 24 23 21 22 24 23 23 26 27 26 25 25 26 26 26 27 28 30 31 31 31 32 35 35 34 36 38 40 40 41 42 42 43 44 45 45 46
17 18 20 20 20 21 21 21 21 22 22 22 22 24 26 25 25 25 25 25 25 26 28 28 29 29 32 33 34 34 35 35 36 37 38 39 39 40 41 42 43 44
17 17 19 19 17 18 18 18 19 20 20 21 21 21 22 23 24 23 23 24 24 25 26 26 27 28 30 31 31 32 33 33 33 34 34 35 37 39 40 39 39 40
16 16 17 17 17 16 16 16 16 17 17 18 19 19 18 19 20 21 21 21 22 24 24 24 24 26 28 28 29 29 30 31 32 33 32 32 33 37 39 39 37 36
16 15 16 16 17 16 16 17 16 15 15 15 15 17 17 16 17 18 20 20 20 22 24 24 23 23 25 26 26 27 28 29 28 30 32 30 30 32 35 38 37 36
16 15 14 15 16 16 16 16 15 14 14 14 13 14 15 15 15 16 18 19 19 21 23 23 22 22 23 24 24 24 25 26 26 27 30 30 30 30 31 34 36 36
18 16 15 14 14 14 15 14 15 14 14 14 14 13 13 14 14 14 15 17 18 20 22 23 22 21 22 23 23 23 24 24 24 25 26 29 30 31 30 31 33 34
21 18 16 15 14 14 13 13 14 14 14 14 14 14 13 13 13 13 14 14 15 17 20 22 22 21 21 23 23 23 24 24 25 25 24 25 28 30 30 30 31 32
27 23 20 18 15 14 13 13 13 13 13 14 14 14 14 13 13 13 13 13 12 13 16 19 21 21 21 22 22 23 23 23 24 24 23 23 25 27 28 29 31 31
31 28 25 21 18 16 14 13 13 13 12 13 13 13 13 13 13 12 12 13 12 11 12 14 18 19 20 20 21 22 22 22 22 22 21 21 22 24 26 28 30 31
32 30 28 25 21 18 17 15 14 13 12 12 12 13 13 13 13 12 11 12 12 11 10 11 13 16 16 17 18 19 19 19 19 19 19 19 19 20 22 24 27 29
32 31 30 27 25 22 20 18 17 15 14 13 12 12 13 12 12 11 11 11 11 11 10 10 11 13 14 15 15 16 16 17 17 17 17 18 17 17 17 19 22 25
33 32 30 29 27 25 24 22 20 18 16 15 13 13 13 13 12 12 11 11 10 11 11 11 11 12 13 14 15 16 17 17 17 16 16 16 17 16 16 16 17 19
34 33 32 31 29 28 27 25 23 21 19 17 16 15 14 13 13 12 12 11 11 11 11 11 11 12 13 14 15 16 18 18 17 16 15 15 16 16 15 15 15 16
35 35 34 33 32 31 30 28 26 24 21 19 18 17 15 14 14 14 13 13 12 12 12 12 12 12 12 13 14 15 17 17 17 17 16 15 16 16 15 15 14 14
36 36 36 35 34 33 32 30 29 27 25 23 21 19 17 16 15 14 14 13 13 12 12 12 12 12 12 12 13 15 16 17 16 16 16 16 16 16 16 15 14 13
35 35 35 35 34 34 33 32 31 30 27 26 24 22 20 18 17 16 14 13 13 12 12 12 12 12 12 13 13 14 16 17 17 16 16 16 16 16 15 14 14 13
34 32 33 33 33 33 33 31 31 31 30 29 27 24 22 21 19 17 16 14 13 13 13 13 13 12 12 13 13 14 15 17 17 17 16 16 16 15 15 14 14 13
39 34 31 31 32 32 32 32 31 31 30 30 28 26 25 23 21 19 18 17 15 14 14 14 14 13 13 14 14 14 16 18 18 18 18 17 15 15 14 13 13 13
52 46 37 33 33 33 32 32 31 30 30 29 29 28 27 26 24 22 20 19 17 16 15 15 14 14 14 14 14 15 17 19 20 20 19 18 16 15 14 13 12 13
58 53 44 37 34 34 33 32 31 30 29 29 29 28 27 26 26 24 22 21 20 19 18 17 16 16 16 15 15 16 19 20 21 22 21 20 18 16 15 13 12 12
58 53 46 40 35 34 34 32 31 30 29 29 29 28 27 27 26 26 25 23 22 21 20 18 18 19 19 18 17 17 19 21 22 23 23 22 20 17 15 13 12 12
59 55 49 43 38 35 34 33 32 31 31 31 30 29 27 27 26 26 26 25 24 22 20 19 19 20 21 20 20 20 21 22 23 24 25 24 21 18 15 13 12 11
61 57 52 48 42 38 36 37 36 35 34 33 31 31 29 28 27 27 26 26 25 23 21 20 19 20 21 21 21 22 23 23 23 24 25 25 22 18 15 13 11 11
63 58 52 50 47 42 39 39 40 40 38 36 34 33 32 31 30 29 27 26 26 24 23 22 20 20 21 21 21 23 24 24 24 25 24 23 21 18 15 13 12 11
64 58 52 50 49 46 44 43 43 43 42 40 38 37 36 35 33 31 29 28 27 27 26 24 23 22 21 21 21 22 24 24 25 25 24 23 21 18 15 13 12 11

ECMWFNIL_prec_cthk_075.txt.gz
RH
18 18 19 21 22 22 23 25 25 25 27 27 26 26 25 25 26 27 26 27 28 31 32 31 32 32 32 33 35 38 40 44 46 47 47 46 46 46 45 43 42 40
18 18 18 19 21 22 22 23 24 23 22 24 25 26 25 25 25 26 26 26 26 27 30 30 31 31 31 32 34 36 38 40 43 45 46 44 44 44 44 44 43 43
18 18 17 18 19 20 21 22 23 23 21 20 22 24 25 25 25 25 26 26 25 26 27 29 30 31 32 32 34 36 37 38 39 41 41 41 42 41 41 42 42 42
17 18 18 18 18 19 21 22 22 22 21 20 20 21 22 23 24 25 26 26 25 25 25 27 29 30 31 32 33 33 34 36 37 38 37 38 40 40 40 41 40 40
18 18 17 17 18 18 19 20 20 21 21 20 19 19 21 22 22 23 25 26 25 24 24 25 27 29 30 32 32 31 31 32 34 36 36 35 37 38 38 39 39 38
21 19 18 17 18 18 18 18 18 18 19 19 19 19 20 20 20 21 22 23 23 22 22 22 24 27 28 30 31 31 30 30 31 33 33 34 34 35 35 37 38 38
24 21 19 17 17 17 18 18 18 18 17 17 18 18 18 18 18 18 18 18 20 21 21 21 23 25 26 27 28 28 28 28 30 31 31 31 32 33 34 34 35 36
27 24 22 19 17 17 18 18 18 18 17 17 16 16 15 15 15 15 16 16 17 19 20 20 22 24 25 25 26 27 27 27 29 30 30 30 30 31 32 33 33 33
29 27 25 22 19 17 17 18 18 18 18 18 17 16 15 14 13 13 14 14 15 17 18 19 21 23 25 24 24 25 26 26 28 29 29 29 29 29 30 32 32 32
31 29 28 25 20 17 16 17 18 18 19 18 17 17 16 15 14 13 13 13 14 15 16 17 18 20 23 24 24 24 25 26 27 28 28 28 28 27 28 30 31 31
33 32 30 27 23 19 16 16 17 18 19 19 18 18 17 16 15 14 14 13 12 13 14 15 16 17 19 21 22 23 24 25 26 26 27 26 25 25 26 27 29 30
34 33 31 29 27 23 19 17 17 17 18 18 18 18 17 16 16 15 14 14 13 12 13 13 14 15 16 17 19 21 22 24 25 25 25 23 22 22 23 24 25 27
35 34 33 31 29 27 24 21 18 17 17 17 17 18 16 16 15 14 14 14 13 13 12 13 13 14 14 14 16 17 19 21 22 22 22 21 21 20 20 20 21 21
36 35 35 33 32 30 28 26 23 21 19 17 17 17 16 15 14 14 14 14 13 13 13 12 12 12 13 13 14 15 16 18 18 19 19 19 19 19 19 19 18 18
38 37 37 36 35 33 31 29 28 25 23 22 20 18 17 16 14 14 13 13 13 13 12 13 12 12 12 12 13 13 14 15 17 17 17 17 18 18 19 18 18 17
40 39 38 37 36 35 33 32 31 29 28 26 24 22 20 18 17 15 14 14 13 13 13 13 12 12 12 12 12 12 12 14 15 16 17 17 18 18 18 18 17 17
41 40 39 38 37 36 35 34 33 32 31 29 27 25 24 22 20 18 16 15 15 14 14 14 14 13 12 12 12 12 12 13 14 15 16 17 17 18 18 18 18 18
43 40 39 38 37 36 35 34 34 34 33 32 30 28 27 25 23 21 19 18 17 17 16 15 15 14 13 13 13 13 12 12 12 13 15 16 17 17 18 18 18 18
47 43 39 37 36 35 35 34 34 34 33 32 32 31 31 29 26 24 23 21 20 19 18 17 16 15 14 14 14 14 13 13 12 12 13 14 16 17 17 18 18 18
51 45 41 38 36 35 35 35 34 33 33 33 33 34 34 32 30 28 26 24 23 21 20 19 18 17 15 15 14 14 14 14 14 14 14 14 15 16 18 18 18 18
55 48 44 41 39 37 36 35 34 33 34 34 35 35 35 34 33 32 29 27 25 23 22 20 18 17 17 16 15 15 15 15 15 15 15 15 15 16 18 18 18 18
59 53 49 46 43 41 39 36 34 34 34 35 36 36 35 35 35 33 31 28 26 25 24 21 18 18 17 17 17 17 17 17 17 17 17 16 16 17 18 19 19 19
63 59 55 51 48 46 44 41 39 37 36 36 36 36 36 35 34 33 31 30 28 26 24 21 19 18 18 18 18 18 19 20 19 18 18 17 17 17 19 20 20 19
67 62 59 58 55 51 47 45 44 43 41 40 38 36 36 36 35 34 33 31 28 25 23 22 20 19 20 19 18 19 21 23 23 22 21 19 17 18 19 20 21 20
70 66 62 61 60 56 51 47 45 44 45 44 42 40 39 38 38 37 34 32 30 26 24 24 22 21 21 20 19 19 21 24 26 26 24 21 19 18 19 21 22 21
72 69 66 64 63 61 55 48 46 45 44 44 44 43 42 42 41 38 35 33 32 30 28 26 24 22 20 19 18 18 20 23 26 26 26 23 21 20 20 21 22 22

ECMWFNIL_prec_cthk_078.txt.gz
RH
21 21 21 22 23 25 27 28 28 28 29 31 31 29 29 29 30 30 30 30 32 34 36 35 34 35 37 39 41 41 43 47 48 50 51 53 52 48 44 43 42 43
22 20 20 21 22 23 25 27 27 27 27 27 29 29 28 28 28 28 29 29 30 31 33 34 33 33 35 37 39 40 41 43 46 50 51 52 52 50 48 46 45 45
21 21 20 20 21 21 22 24 25 27 26 25 26 27 28 28 28 27 27 28 28 29 31 32 32 32 34 36 38 39 40 41 43 46 48 48 49 48 48 48 46 46
19 20 19 18 19 20 21 22 22 24 24 24 24 24 26 27 28 27 27 27 27 28 29 30 31 32 33 34 36 37 38 40 40 42 44 45 45 45 46 47 46 45
20 19 19 18 18 19 20 21 21 21 22 21 21 22 23 25 26 27 27 27 27 27 28 29 30 32 33 34 34 34 35 35 36 38 39 40 41 42 43 44 44 44
24 20 19 19 18 18 18 18 20 21 21 20 20 20 21 22 24 25 25 26 27 27 28 28 29 30 32 34 34 33 33 32 33 33 34 35 37 39 39 40 40 41
29 25 21 19 18 18 18 17 18 19 20 20 20 20 20 21 22 23 24 24 25 27 28 28 28 28 29 31 32 32 32 31 31 30 31 31 32 34 36 36 36 37
32 30 27 23 20 18 18 17 18 18 18 19 19 20 20 20 21 21 23 23 24 25 26 27 27 26 26 28 29 30 30 30 30 29 29 30 30 31 31 33 33 33
33 32 31 29 24 20 18 17 18 17 17 17 17 18 18 19 20 21 22 22 23 24 23 23 23 25 25 25 27 29 28 28 28 28 29 30 30 31 30 31 31 31
33 32 32 32 29 25 21 18 17 17 17 17 16 16 16 17 18 19 20 20 20 21 21 20 21 22 23 24 25 27 27 27 27 28 28 29 30 32 31 30 30 30
34 32 32 31 30 29 25 21 19 18 17 17 17 17 16 16 16 17 18 18 17 17 17 17 18 19 21 22 22 24 26 26 26 26 27 28 29 30 31 30 30 29
35 34 32 31 31 30 29 26 23 20 18 17 16 16 16 16 17 17 17 18 17 16 16 15 16 17 19 20 20 21 23 24 25 26 26 26 27 28 28 28 27 27
36 35 34 33 33 32 31 30 28 25 22 19 17 16 16 16 16 16 17 17 17 17 17 16 16 16 17 18 19 20 20 21 23 24 25 25 25 25 25 24 24 25
38 38 36 35 35 34 33 32 30 28 25 23 20 17 15 15 15 15 15 16 16 16 17 17 17 16 16 17 18 19 20 20 20 21 22 23 23 23 22 21 20 21
43 42 40 38 37 35 34 33 32 31 29 27 23 20 16 14 14 14 14 15 15 15 15 16 16 16 16 15 16 17 18 19 19 19 19 20 21 21 20 19 18 18
49 47 44 42 39 37 35 34 33 32 31 30 27 24 21 18 16 14 14 14 14 14 14 14 15 14 14 15 15 16 16 17 18 17 17 17 18 19 19 18 17 17
51 49 48 46 43 40 38 37 35 34 33 31 30 29 27 25 22 19 16 14 14 13 13 13 13 13 13 14 14 15 15 16 16 16 16 15 16 16 17 18 18 18
52 51 49 47 45 43 40 39 38 37 35 34 32 31 30 29 28 26 22 20 17 15 15 14 14 14 14 14 14 14 15 15 16 16 15 15 14 15 16 17 18 18
47 48 48 47 46 45 43 43 42 40 37 35 34 33 33 33 32 30 29 26 24 21 18 17 16 16 16 16 15 15 15 16 16 16 16 15 14 14 15 16 17 18
42 40 39 40 42 44 45 45 43 41 38 37 36 35 35 34 33 32 31 30 29 26 24 21 19 17 17 17 17 17 17 17 17 17 17 16 15 14 14 15 15 17
49 46 41 38 38 40 42 43 42 41 40 39 38 37 36 35 35 35 33 32 31 30 29 27 23 19 18 17 17 17 18 18 19 19 18 18 17 15 14 14 14 14
54 53 51 48 44 39 38 39 40 40 40 40 40 40 39 38 36 36 35 34 34 33 32 30 26 22 20 19 17 17 18 19 20 20 19 19 18 17 16 15 14 14
56 56 55 56 52 46 40 38 38 40 41 43 44 43 42 40 37 36 36 35 35 35 35 32 27 23 21 20 19 19 20 21 20 19 19 19 18 17 17 16 16 15
62 59 58 57 55 51 45 41 39 40 42 43 44 45 43 41 39 37 37 36 36 35 35 33 30 27 24 22 20 21 22 22 21 20 20 19 18 18 18 17 17 16
69 65 62 60 58 55 49 45 43 42 43 44 44 44 44 42 41 39 37 36 35 34 33 32 31 29 28 25 21 21 23 23 22 22 22 20 19 18 18 18 17 17
75 72 69 65 62 59 54 50 47 45 45 46 46 45 45 44 42 40 38 35 34 33 32 31 30 29 29 28 25 24 24 25 25 24 23 21 20 19 19 20 19 18

ECMWFNIL_prec_cthk_084.txt.gz
RH
27 27 28 29 30 32 34 35 37 39 40 40 42 45 45 41 42 43 42 40 37 36 37 39 42 42 42 42 44 45 46 48 51 51 46 43 44 46 46 44 45 46
27 27 27 27 28 29 31 32 34 36 37 36 39 44 43 40 40 41 40 38 35 35 34 34 37 39 40 41 41 42 43 43 47 53 50 45 45 46 46 46 45 44
26 27 26 27 28 27 28 30 31 33 35 34 35 38 40 40 41 40 39 36 34 34 34 32 34 35 37 38 38 40 41 41 46 54 52 48 48 49 48 47 47 45
25 25 25 25 27 28 28 29 30 31 33 34 34 34 36 40 42 40 37 35 33 32 33 32 32 33 34 36 37 39 40 41 45 48 49 47 47 47 48 48 48 48
25 24 24 23 26 28 28 28 29 29 31 32 33 33 32 34 37 39 37 34 32 31 32 31 30 30 31 33 35 38 39 42 44 42 41 43 45 45 47 47 46 46
25 25 24 22 22 24 26 25 25 27 30 31 31 30 30 28 30 35 37 36 34 34 35 34 31 30 31 31 33 36 38 42 45 42 38 39 42 45 46 46 43 42
25 24 24 24 21 21 22 23 24 25 28 31 30 28 28 26 26 29 32 33 35 36 36 36 33 29 30 30 31 33 35 37 40 38 36 36 38 40 41 42 41 39
27 25 24 24 23 22 21 21 22 23 23 27 29 27 26 25 24 26 27 28 31 34 33 34 31 28 29 30 29 31 33 34 36 35 34 34 34 34 34 36 36 35
30 27 26 25 24 24 23 22 22 22 21 22 25 27 26 24 24 25 26 24 26 28 28 28 28 27 29 30 28 28 29 32 36 34 32 32 31 31 31 32 32 32
33 30 29 27 26 26 25 24 24 23 21 19 22 25 26 24 23 24 24 22 21 23 23 24 26 26 27 29 29 27 27 29 31 30 29 29 29 30 31 32 32 31
36 34 32 30 30 31 29 27 27 28 25 20 19 22 26 24 21 20 21 21 20 20 20 20 22 23 24 26 28 28 28 28 27 25 26 27 27 27 28 29 29 30
39 37 35 33 33 34 35 34 31 29 28 25 20 19 23 24 22 19 19 19 19 19 20 19 19 20 21 22 25 28 29 28 27 25 24 25 25 25 24 24 25 25
43 40 38 37 36 35 37 39 38 34 32 29 25 20 20 23 23 21 18 18 19 18 19 19 18 19 19 20 21 24 26 25 25 26 26 25 24 24 24 24 24 24
47 46 44 42 39 37 36 37 40 41 37 33 29 25 22 23 24 22 19 17 17 18 18 18 18 18 18 19 19 21 22 21 21 22 25 26 26 25 26 26 26 26
50 50 48 45 41 39 37 36 37 39 39 37 33 30 27 26 26 25 23 19 17 16 16 16 16 16 16 16 17 19 20 19 18 19 20 22 24 25 27 27 26 27
54 51 49 47 43 40 39 38 37 37 37 37 35 33 32 29 27 27 27 26 21 17 16 15 15 15 14 14 14 15 16 16 17 17 17 18 20 21 24 26 26 28
57 52 49 48 46 44 42 41 40 38 37 36 35 34 34 33 30 28 28 28 26 23 19 17 16 15 14 13 13 13 14 14 14 15 15 15 16 17 19 22 24 25
60 55 51 49 47 46 45 44 44 43 40 36 35 34 34 34 33 32 30 29 28 27 25 23 20 17 14 13 14 14 14 14 14 15 15 15 15 15 16 17 19 21
67 61 54 51 49 47 47 47 48 47 43 39 38 38 36 35 35 34 33 33 31 29 28 27 25 22 17 14 14 14 14 14 15 15 16 17 17 16 15 14 16 17
74 68 60 55 51 48 47 48 49 48 45 43 46 45 41 37 35 34 34 34 34 33 31 29 28 26 21 17 14 14 13 14 14 14 14 16 17 16 15 14 14 15
78 74 69 63 57 52 49 47 48 47 46 45 48 49 47 42 37 36 36 35 34 34 34 32 31 29 26 22 18 15 15 14 14 14 13 13 14 14 14 14 13 14
81 79 76 71 64 59 54 50 49 48 47 47 48 49 49 46 41 39 39 37 35 35 34 34 34 32 31 29 25 22 21 20 18 16 15 14 14 14 14 14 14 15
83 81 79 75 70 64 59 55 52 49 49 50 50 50 49 46 44 43 40 38 37 36 35 34 34 34 34 33 32 30 29 27 25 23 21 18 16 16 16 16 16 16
85 84 82 80 76 70 66 62 58 54 53 51 50 49 48 47 47 47 43 39 37 36 36 35 34 33 35 34 34 34 33 32 31 29 27 25 22 19 18 18 17 16
88 87 86 84 81 76 73 71 68 64 59 56 53 51 51 50 50 49 47 43 39 37 36 36 34 32 33 34 34 34 35 34 33 33 31 29 27 24 22 20 18 17
84 85 87 87 87 83 79 77 75 72 67 63 60 59 58 55 52 49 50 49 48 46 44 42 39 35 31 32 33 33 34 34 34 33 32 31 30 28 27 24 21 19

ECMWFNIL_prec_cthk_087.txt.gz
RH
26 28 30 32 37 40 41 40 40 41 41 43 44 47 50 51 49 48 49 46 39 38 39 42 44 41 44 48 47 49 49 52 58 51 43 45 46 45 45 43 45 47
23 26 27 30 35 37 39 39 40 41 41 43 46 46 46 47 48 47 48 46 41 38 35 36 41 39 42 52 49 45 48 49 54 54 46 43 47 47 44 44 45 45
22 23 24 29 34 35 37 38 38 39 40 41 42 43 45 45 45 44 44 44 44 43 37 33 38 38 40 47 44 44 51 47 46 57 54 44 46 49 46 44 45 43
22 22 23 27 33 35 36 37 36 36 38 39 39 39 43 45 45 42 39 40 42 42 40 35 36 37 37 38 37 40 49 47 44 55 57 49 48 50 49 46 45 44
23 22 22 25 30 33 35 36 36 36 36 39 40 39 41 42 44 43 39 38 37 38 40 37 35 35 34 34 34 35 42 47 51 53 53 53 52 49 49 47 45 46
25 24 23 25 28 30 32 34 34 35 37 38 39 38 39 40 40 41 41 40 38 38 40 38 36 37 36 34 32 33 37 44 53 55 51 50 49 51 56 52 45 45
26 25 24 25 27 28 30 32 32 33 36 38 38 37 38 39 38 37 38 39 40 39 39 39 38 38 38 36 33 31 33 37 45 51 48 45 44 49 58 54 46 44
27 27 25 25 27 28 28 29 31 31 33 34 36 37 37 37 38 38 37 36 37 38 37 38 40 38 36 37 36 32 31 33 38 41 39 38 39 41 45 44 43 43
31 29 27 26 27 28 27 27 28 30 30 29 31 34 36 36 37 39 38 36 34 34 34 34 36 35 31 33 35 35 33 33 37 39 38 38 38 36 36 37 39 40
33 31 31 29 28 27 27 27 27 29 30 28 27 30 34 35 35 35 36 35 34 31 30 30 31 30 28 28 31 32 32 31 32 36 39 40 40 39 38 38 39 39
35 33 33 31 29 27 28 27 26 27 29 30 27 26 29 32 34 34 33 33 32 29 27 26 26 27 27 28 31 31 30 30 31 32 34 37 37 37 38 38 38 39
38 37 36 35 33 30 30 30 27 25 27 28 28 26 25 26 29 31 32 31 29 27 26 25 23 23 23 23 28 30 30 31 33 33 32 32 31 32 35 37 37 36
42 41 38 38 37 34 34 33 30 28 26 25 26 26 25 23 24 26 29 30 26 22 24 26 23 21 20 19 20 25 28 30 31 32 33 32 31 31 34 37 37 36
45 45 42 41 39 37 37 36 34 33 30 26 25 26 25 24 22 23 26 29 28 22 19 23 24 22 20 18 16 18 23 27 28 28 29 31 31 31 32 33 34 34
48 46 46 44 42 40 38 37 38 37 35 32 29 28 27 25 23 22 23 25 28 26 22 22 23 24 23 20 17 16 19 24 27 26 25 26 27 28 29 30 30 30
52 47 45 43 42 41 39 38 39 39 38 37 35 33 32 30 28 26 23 22 24 26 26 24 22 22 22 21 18 15 16 20 24 26 26 25 24 25 26 27 27 28
59 53 47 43 42 41 40 38 37 38 39 39 38 37 36 35 36 32 26 24 24 25 26 27 24 21 20 19 17 14 14 16 20 23 24 24 23 23 23 23 24 24
68 60 53 48 45 44 43 39 37 37 38 38 39 38 37 37 38 34 30 29 29 26 25 26 25 23 21 20 18 14 13 13 17 21 22 22 23 22 22 22 21 21
77 70 62 56 52 51 48 43 41 39 36 36 38 38 37 36 36 34 31 31 30 28 26 26 25 26 25 24 22 18 13 12 13 17 20 21 21 22 23 22 22 21
84 80 74 69 64 59 54 50 48 44 39 36 37 37 37 35 34 34 33 31 30 28 27 26 26 27 27 26 25 21 16 13 12 13 15 18 19 20 21 22 23 23
84 88 86 82 77 71 64 60 57 52 46 42 39 37 37 37 35 35 34 33 31 29 27 27 26 27 26 25 24 23 20 16 14 13 13 14 15 17 18 19 21 23
77 85 90 89 88 85 78 75 72 63 54 50 45 41 39 38 37 36 35 35 33 30 29 29 28 28 26 24 24 24 23 21 19 17 16 15 13 13 14 14 16 18
74 76 81 84 87 88 85 82 80 74 67 61 55 48 43 42 41 39 38 37 36 34 32 32 31 30 28 27 27 26 26 25 24 22 20 18 15 13 12 12 12 13
72 71 74 77 81 84 83 80 78 76 74 73 67 58 51 47 45 43 42 40 39 39 37 36 35 33 31 29 28 28 28 27 26 26 25 22 19 16 14 13 12 12
75 73 75 78 79 82 82 80 78 76 76 77 75 68 61 56 51 47 45 44 42 42 42 40 38 38 36 34 31 29 29 30 30 29 28 26 24 21 19 17 16 14
75 73 74 77 78 80 82 81 82 82 80 81 82 76 67 62 59 53 49 48 47 47 45 42 42 42 41 39 37 34 33 33 35 34 32 30 28 26 24 23 21 19

ECMWFNIL_prec_cthk_093.txt.gz
RH
36 37 40 42 42 43 43 40 37 33 33 36 39 44 48 48 44 42 41 41 44 47 46 45 45 46 47 47 48 46 44 43 39 35 34 35 35 36 36 37 38 39
32 34 37 41 42 41 40 37 34 31 30 32 36 42 50 52 48 45 43 41 42 43 42 41 42 42 43 44 45 46 45 45 42 37 35 35 36 38 37 36 39 41
26 30 33 37 40 40 38 36 34 31 30 31 35 39 46 51 51 48 45 41 40 39 37 38 38 38 39 41 44 44 43 46 44 39 37 36 37 40 40 37 37 40
22 25 28 32 35 37 38 37 35 33 31 32 36 39 42 47 51 50 46 42 39 36 34 34 33 34 37 40 43 43 41 45 45 42 40 39 40 42 42 41 39 38
22 21 23 26 30 33 36 37 36 35 33 33 37 40 41 45 48 47 46 43 40 37 34 33 31 31 34 37 39 41 41 41 42 43 41 40 42 44 43 45 45 41
24 22 22 23 25 28 32 34 35 36 35 34 36 37 40 44 45 45 45 42 39 38 36 34 32 31 31 32 33 36 39 38 37 40 41 41 43 44 43 44 45 45
26 24 23 23 23 24 27 29 32 36 36 35 35 35 37 41 44 44 43 40 38 38 37 36 34 31 31 30 30 31 33 34 35 37 39 41 43 43 42 43 45 45
31 28 25 25 24 23 23 25 28 33 36 36 36 36 35 37 40 41 40 38 37 36 36 35 33 31 30 29 29 30 30 30 32 34 35 37 40 39 38 42 47 46
34 33 30 28 27 26 25 23 24 28 32 34 35 36 36 36 37 38 37 36 35 34 35 34 32 31 30 28 27 28 29 28 29 30 31 33 35 35 34 36 40 41
43 38 35 31 30 30 29 28 25 25 28 31 33 35 36 36 37 38 37 35 34 32 32 33 33 34 33 30 27 26 26 27 27 28 29 31 32 31 31 31 31 33
61 49 44 40 36 33 33 33 31 28 27 27 29 31 33 35 37 39 39 37 34 33 32 32 32 34 34 33 30 27 26 26 26 27 28 30 32 31 30 29 29 29
71 65 58 51 44 39 36 34 31 30 29 27 27 28 29 31 34 36 38 38 37 36 35 34 33 31 30 31 32 31 28 26 26 26 28 30 30 30 29 28 27 27
73 77 72 60 54 52 46 39 33 28 27 27 27 27 27 28 30 31 33 35 37 38 36 35 33 30 28 28 29 29 28 27 25 25 26 28 28 28 28 27 27 27
69 78 80 70 63 61 56 50 44 36 31 28 26 27 27 27 28 29 29 30 32 35 36 35 34 31 28 26 25 25 25 25 24 22 23 24 26 27 27 27 27 26
65 71 78 75 69 65 60 57 55 52 46 38 32 29 27 26 27 28 29 29 29 30 31 32 32 31 28 26 25 23 22 22 21 20 20 20 21 22 23 25 25 25
71 72 75 75 73 70 64 59 58 59 57 52 46 39 32 29 27 27 27 28 28 27 27 27 27 27 26 25 24 23 22 21 20 20 18 17 17 17 18 19 20 22
79 79 77 75 75 75 71 65 63 63 63 62 59 52 43 34 30 29 28 28 28 26 25 25 24 24 24 24 24 22 21 21 20 19 19 18 16 15 14 15 16 17
84 82 81 79 78 77 74 71 70 70 69 66 63 60 55 47 39 33 31 32 32 30 27 26 25 25 24 24 24 24 22 22 21 20 19 18 18 17 15 15 15 15
85 84 82 80 79 77 75 74 74 73 71 69 65 62 60 57 52 45 39 38 38 36 34 32 29 29 28 26 25 24 23 23 23 22 21 19 18 17 17 16 15 15
84 83 81 79 78 75 73 73 74 74 71 68 65 63 61 60 58 54 48 44 43 40 38 36 34 34 33 32 30 27 25 25 25 25 25 24 22 19 17 16 15 15
82 81 79 78 77 76 74 73 72 72 72 69 68 67 65 64 63 60 55 49 46 44 40 37 36 36 35 35 34 32 29 28 28 28 27 27 26 25 22 19 17 16
79 79 77 76 76 77 78 76 71 68 70 71 71 70 68 66 66 67 65 60 57 54 50 43 39 38 36 36 35 34 32 29 28 28 28 28 28 28 27 25 23 20
76 77 76 75 74 73 74 74 69 66 66 67 68 70 70 70 69 69 69 68 65 63 61 56 51 47 44 41 40 39 37 33 31 28 26 26 27 27 27 27 26 25
73 75 76 76 76 75 74 74 73 72 69 67 66 67 69 71 72 72 72 69 66 63 62 60 59 59 57 54 51 49 47 44 40 37 33 29 27 27 28 29 29 29
61 67 72 75 77 77 77 77 76 74 73 71 69 68 68 70 71 74 75 74 70 66 63 62 62 64 68 67 61 60 60 57 52 49 44 38 34 32 30 30 31 31
54 55 58 63 68 71 73 74 73 72 72 72 72 72 72 72 71 72 77 79 77 74 70 67 65 66 72 74 68 66 68 67 65 63 58 50 45 42 39 36 33 33

ECMWFNIL_prec_cthk_096.txt.gz
RH
45 46 47 46 46 46 45 45 45 44 42 41 43 44 45 44 42 41 43 45 48 49 49 51 52 53 55 54 53 52 49 45 40 38 39 38 40 41 42 43 42 40
44 45 45 43 43 45 45 44 43 40 38 36 38 41 44 46 44 42 42 43 46 49 48 49 51 51 53 53 53 54 53 49 44 40 38 37 39 40 39 41 42 41
40 42 43 41 40 42 43 43 41 38 35 32 33 36 41 46 46 43 42 41 44 47 44 44 47 47 48 49 51 53 52 50 47 44 40 39 39 39 38 40 41 43
33 36 38 39 38 38 39 41 40 37 33 31 30 33 38 44 47 47 45 42 42 45 42 39 41 43 44 45 48 49 49 49 49 47 44 42 41 41 41 40 39 42
28 29 32 35 36 36 36 38 38 36 33 31 30 32 36 41 45 48 49 45 43 44 41 37 36 38 40 43 45 45 47 48 48 48 46 43 42 44 44 43 41 42
26 26 28 31 33 34 33 34 35 35 33 33 32 32 35 39 43 46 47 46 45 44 41 36 34 34 36 41 42 41 44 47 46 46 47 45 45 46 46 47 48 47
25 25 24 27 29 31 31 31 32 33 33 33 33 33 35 37 41 44 45 44 44 43 41 38 36 34 34 37 38 37 39 42 42 43 46 48 48 47 46 47 49 49
27 25 23 24 26 27 28 28 30 31 31 32 33 34 35 36 38 41 43 43 43 41 40 39 38 36 34 34 35 35 35 36 37 38 42 47 48 48 47 45 46 49
29 29 26 25 25 25 26 26 27 28 29 30 32 34 36 36 37 38 39 41 41 40 38 37 37 36 35 33 33 33 33 34 34 34 36 40 42 44 46 44 44 48
33 32 30 29 27 25 25 25 25 26 27 29 30 33 35 36 37 38 39 39 39 38 37 36 35 34 34 33 32 31 32 33 33 33 33 33 36 39 41 40 40 41
49 40 33 31 31 29 27 26 25 25 27 29 30 32 34 36 37 38 39 39 37 35 34 34 34 33 33 32 31 30 30 30 31 31 31 31 31 34 36 37 37 36
64 57 45 34 30 29 27 27 28 27 28 29 30 31 32 34 36 37 38 38 36 33 32 32 32 32 32 31 29 29 28 29 29 29 29 29 29 30 32 34 35 35
68 72 65 48 37 32 29 26 27 30 30 30 30 30 30 31 32 34 35 36 35 33 31 31 30 30 30 29 28 27 27 27 26 27 27 27 27 28 28 29 31 31
72 75 75 67 58 52 44 34 28 28 31 32 31 30 29 28 28 29 31 33 33 33 32 32 32 31 30 29 28 27 26 25 25 24 24 24 24 25 26 26 27 27
76 76 75 75 73 69 63 54 44 37 35 34 33 32 31 29 28 27 27 29 30 31 31 32 32 31 31 30 29 28 26 25 24 23 22 21 21 22 23 23 24 25
79 76 74 74 76 76 74 69 63 56 48 41 38 39 39 37 34 31 29 28 29 30 31 30 30 31 30 30 29 28 27 25 24 22 21 21 20 19 19 19 20 21
79 77 74 72 73 76 77 75 72 68 61 53 49 48 48 46 43 40 35 32 30 29 30 30 29 28 28 28 28 27 27 26 24 23 21 20 19 18 17 17 17 17
80 80 78 75 72 73 75 77 75 71 66 61 56 54 55 53 51 49 45 39 35 30 29 29 28 27 26 26 26 26 26 26 25 25 23 22 20 18 16 15 15 15
87 86 84 81 77 75 75 77 76 73 71 67 59 58 59 58 55 55 51 47 42 37 32 29 29 28 27 26 26 26 26 26 26 25 25 24 23 21 20 17 16 15
89 91 89 86 83 81 80 81 80 78 76 73 67 64 64 62 61 60 57 53 49 44 39 36 34 33 31 29 29 29 29 29 28 27 25 25 25 24 23 22 20 19
84 88 90 89 87 85 83 81 80 79 78 76 74 72 71 70 68 66 63 60 57 53 48 44 42 41 39 36 35 34 35 35 34 31 29 27 26 26 26 26 26 25
78 81 85 88 88 88 86 83 80 78 77 76 75 75 75 74 72 70 68 66 64 63 59 54 49 45 43 42 39 38 37 37 36 35 34 31 30 29 29 29 29 29
78 76 77 81 85 87 87 86 85 82 78 74 73 74 76 76 75 74 72 71 69 68 66 63 59 51 46 44 42 40 39 38 37 37 36 34 33 32 31 30 30 31
76 77 77 78 82 84 85 85 85 84 81 77 73 72 73 75 76 76 76 76 75 72 70 69 67 61 53 49 48 47 46 45 44 42 39 36 34 33 34 32 31 30
67 71 73 74 75 78 81 83 82 82 83 81 77 73 72 73 74 76 78 78 77 76 75 73 72 67 60 55 54 54 54 54 52 49 46 42 38 38 42 42 39 35
60 63 66 68 68 69 72 76 78 79 81 81 79 76 74 73 73 74 76 77 77 77 76 75 74 71 66 62 59 59 59 60 59 55 52 51 48 45 45 44 43 41

ECMWFNIL_prec_cthk_102.txt.gz
RH
41 45 48 49 50 51 50 50 51 53 53 49 46 45 46 46 46 45 44 45 47 47 46 46 47 47 47 48 48 48 47 44 41 41 41 41 42 42 45 46 46 47
39 43 47 50 50 49 49 49 48 49 50 50 48 47 46 46 46 47 48 48 49 48 47 48 49 49 50 50 49 50 48 44 42 41 40 39 40 41 42 44 45 45
37 39 43 48 50 50 49 49 47 46 47 47 47 48 48 47 46 47 49 50 50 50 50 50 50 50 51 51 51 52 50 47 45 43 40 38 38 39 39 41 42 42
36 37 38 42 47 50 49 48 46 45 45 45 44 45 48 48 47 46 48 49 49 50 51 52 52 52 52 52 51 52 52 51 48 45 41 39 37 38 38 38 39 39
35 36 37 38 43 48 48 46 45 44 44 44 41 41 43 46 47 46 46 47 47 48 49 51 51 51 52 51 50 50 51 51 50 46 43 41 38 38 38 37 37 38
33 35 36 37 39 44 46 44 43 43 43 43 40 38 38 41 44 46 46 46 46 47 48 48 48 48 49 50 49 50 50 49 49 48 46 44 42 41 40 38 37 38
29 31 34 36 37 40 42 41 41 41 41 41 38 36 35 36 39 44 46 46 46 47 48 47 45 44 46 47 46 48 49 48 49 48 48 47 44 43 42 41 39 38
28 28 30 33 35 37 39 39 39 38 39 39 37 35 33 33 35 40 44 46 46 46 46 47 45 42 42 43 43 44 46 46 48 48 47 48 47 45 44 44 43 42
30 28 27 29 31 34 37 38 37 37 36 37 36 35 33 31 32 35 39 44 46 46 45 45 45 43 42 41 42 43 42 41 44 46 45 45 47 48 47 45 44 44
33 31 28 27 27 29 32 35 36 36 36 35 35 35 34 32 31 33 35 39 43 45 44 43 44 44 43 42 42 42 41 38 38 40 41 41 44 47 49 48 46 44
37 34 31 29 27 26 27 30 33 34 35 35 35 35 34 34 33 32 33 36 40 44 46 45 44 44 43 43 42 42 40 38 36 36 37 37 38 42 45 47 47 46
44 38 34 31 29 27 25 26 28 31 33 34 34 34 34 34 34 34 34 35 38 42 46 47 46 44 42 42 41 40 40 38 37 35 34 34 34 35 37 39 41 42
54 45 39 35 32 30 29 27 26 27 30 32 32 32 33 33 33 34 35 36 37 39 42 46 46 45 43 41 40 39 38 37 36 35 34 33 33 33 33 34 35 36
66 56 47 42 38 34 32 31 28 26 27 30 31 31 31 32 32 33 35 36 37 38 40 43 44 45 44 43 41 40 39 38 36 35 33 33 33 32 32 32 32 33
80 70 58 52 47 41 37 35 33 30 27 27 30 31 32 32 31 32 34 36 38 39 40 41 43 43 43 43 42 41 39 38 37 35 34 32 31 31 31 30 30 30
87 79 68 61 58 52 46 40 38 36 33 30 30 31 33 34 34 33 33 34 37 39 40 40 41 42 42 43 42 42 40 39 38 36 34 32 30 29 28 27 27 26
92 85 77 72 70 66 59 51 46 42 40 37 35 33 33 33 33 33 32 33 34 36 38 39 40 41 41 41 41 41 41 40 38 36 35 32 30 29 28 27 26 26
92 91 87 83 79 76 72 66 61 55 47 41 38 36 35 33 32 30 30 31 32 33 34 35 36 37 39 39 39 39 40 40 39 38 36 34 32 31 29 28 28 27
91 92 92 90 86 83 81 77 73 68 60 50 42 38 36 35 35 32 30 30 31 31 31 32 32 33 34 35 35 36 37 37 38 37 36 35 33 31 30 29 29 28
92 92 92 91 90 88 87 86 82 79 74 65 53 44 40 38 38 38 36 34 33 33 32 31 31 32 32 32 32 33 34 34 34 34 34 34 33 31 30 29 29 29
93 92 91 90 90 89 90 89 86 83 81 75 67 58 52 49 49 50 49 44 38 36 36 36 36 35 34 34 35 35 34 33 32 32 32 31 30 29 28 27 27 27
89 92 91 90 90 90 91 90 86 83 82 80 78 72 67 64 64 65 65 60 51 43 42 44 45 44 41 40 41 40 39 37 36 35 33 31 30 29 28 27 27 27
80 84 87 88 90 90 91 90 88 85 84 83 84 84 81 79 78 76 75 73 65 56 52 53 54 53 51 49 48 46 43 41 41 40 38 35 33 32 31 30 30 31
70 72 74 77 80 84 87 89 88 88 88 86 87 89 90 89 88 86 84 81 76 70 65 62 60 59 58 58 56 53 50 46 44 43 42 41 40 39 39 39 39 38
66 66 67 69 71 74 80 85 87 87 87 87 87 89 91 91 91 90 88 87 86 83 79 73 68 64 63 63 63 61 57 53 48 46 46 46 47 47 48 47 47 46
64 67 71 74 74 73 77 81 82 81 81 82 84 87 89 90 90 90 89 88 89 89 87 83 79 75 71 68 68 68 66 63 59 57 56 56 55 54 54 53 51 50

ECMWFNIL_prec_cthk_105.txt.gz
RH
41 41 45 48 50 52 53 53 53 53 52 51 48 46 46 45 44 43 43 44 44 44 45 45 45 45 45 45 45 45 46 47 47 46 44 44 43 43 44 46 47 47
42 42 43 47 50 51 52 52 53 55 55 53 49 46 46 46 46 44 43 44 46 46 46 46 46 46 46 47 47 47 48 48 47 45 44 43 43 43 43 44 45 45
41 43 43 46 50 51 52 51 51 52 54 53 51 48 47 47 47 45 44 46 49 49 47 47 48 48 48 50 50 49 49 49 47 45 44 43 42 42 43 43 44 44
41 42 43 46 50 52 52 51 50 50 50 51 51 50 49 49 48 47 47 48 50 51 49 48 49 49 49 51 50 50 51 50 49 46 44 43 41 40 41 43 43 44
42 41 42 44 47 52 54 52 50 49 49 48 48 48 49 50 49 47 47 48 49 51 51 51 51 51 51 51 50 51 51 51 50 48 45 43 41 39 40 41 42 42
43 41 41 42 43 48 52 52 50 49 48 48 47 47 46 47 49 49 47 46 47 48 51 52 51 51 51 51 50 49 49 50 50 48 46 44 43 41 40 40 41 40
42 42 41 41 41 43 47 49 51 50 49 48 47 47 45 44 45 47 48 48 46 46 48 51 51 51 51 52 51 49 48 49 48 47 46 45 44 43 41 40 40 40
40 41 41 40 40 41 43 45 48 50 50 48 48 48 45 43 41 43 46 48 47 46 46 49 51 50 50 50 51 50 49 49 48 47 46 46 46 45 43 42 42 41
38 38 39 39 39 40 41 42 45 47 49 48 48 48 46 43 40 39 42 45 47 47 47 48 49 49 48 47 47 48 49 49 49 48 48 47 46 46 45 44 44 43
39 39 38 38 38 38 39 42 43 44 46 47 47 47 46 43 39 37 38 41 45 47 48 47 47 48 47 45 44 44 45 46 47 47 47 46 46 46 46 47 46 44
44 41 39 38 37 36 37 39 41 42 43 44 44 43 43 42 40 37 35 37 41 45 48 48 47 47 47 46 44 42 41 42 44 44 43 42 42 43 43 45 47 47
51 47 42 40 39 37 35 35 36 39 41 41 42 41 40 40 39 37 34 34 37 41 45 48 48 47 47 47 46 44 41 40 41 41 40 38 38 37 37 38 41 45
60 55 50 45 42 39 37 35 33 34 37 40 41 41 40 39 38 36 34 33 33 36 40 44 47 48 47 46 46 45 44 42 40 39 38 37 36 35 33 32 34 36
68 64 59 53 47 42 39 37 34 32 32 35 37 39 39 39 38 37 35 32 31 32 35 38 42 45 46 46 46 45 44 43 41 40 39 38 36 36 34 33 32 32
78 73 69 63 56 48 42 39 37 34 31 30 31 33 35 36 37 36 35 33 31 30 30 32 35 38 42 44 44 45 44 43 42 41 40 39 38 37 36 35 34 33
86 84 81 74 67 59 50 44 40 38 35 31 29 29 29 31 32 33 32 32 31 30 30 29 31 32 35 38 40 42 43 42 42 41 40 39 38 38 36 35 34 34
90 90 89 85 79 71 61 53 46 42 39 35 31 29 27 27 30 31 31 31 30 30 30 29 30 30 32 35 38 39 41 41 41 40 39 38 38 37 36 34 33 32
88 91 93 92 89 82 73 63 54 48 46 41 35 31 29 28 29 30 31 31 30 30 30 29 29 30 32 34 36 38 40 40 40 40 39 39 38 37 35 33 32 31
86 90 93 94 93 88 83 75 66 59 55 49 42 38 35 33 32 31 31 31 30 30 29 28 28 29 30 33 35 37 38 39 39 39 39 38 37 37 36 34 33 31
86 88 90 91 91 90 89 86 79 73 68 62 56 50 43 38 36 35 34 33 33 32 31 29 28 27 27 29 33 36 36 36 36 36 36 36 36 36 36 35 34 33
83 86 87 89 91 92 93 91 88 85 80 73 67 63 57 49 43 41 39 37 36 35 33 32 31 29 28 28 30 33 33 33 32 32 33 33 33 33 33 33 33 33
81 82 83 84 87 90 92 92 92 91 87 81 77 74 70 64 55 49 46 43 41 38 36 35 35 33 31 30 30 31 32 31 31 31 31 31 31 31 31 31 31 31
78 79 80 81 82 84 88 91 93 93 91 87 84 80 76 72 68 61 54 49 46 43 41 40 42 42 38 35 33 33 33 33 32 32 32 31 32 32 31 31 30 30
73 74 76 78 80 80 82 86 89 91 92 91 89 86 81 78 77 73 67 59 53 51 50 50 52 52 48 43 39 38 38 38 37 36 36 35 35 35 34 33 32 31
67 67 67 66 69 73 77 81 85 87 89 89 90 91 89 86 84 82 78 72 67 62 60 61 63 62 59 56 52 49 49 50 48 46 45 44 43 41 39 37 35 34
60 60 58 54 56 62 69 75 78 81 83 85 87 89 90 90 90 88 85 82 79 73 69 69 71 72 72 71 67 62 60 59 59 57 56 54 53 51 48 45 41 40

ECMWFNIL_prec_cthk_108.txt.gz
RH
40 43 48 51 54 55 55 53 52 52 53 54 54 53 51 49 47 48 51 48 43 43 42 40 41 41 44 45 41 42 45 44 47 47 42 42 45 46 47 47 47 48
39 41 44 50 53 54 54 53 53 53 53 53 54 55 52 49 47 45 46 47 45 46 44 42 42 41 43 48 46 45 45 43 46 49 44 42 44 46 46 46 47 46
40 40 41 47 51 53 54 55 54 54 55 55 55 55 52 50 49 45 43 44 46 50 50 47 47 45 44 47 46 47 49 45 46 50 47 43 44 45 46 46 46 46
40 41 42 47 50 52 54 56 55 54 56 58 57 56 54 52 52 49 45 42 44 50 53 51 51 51 49 47 46 49 51 48 48 48 46 45 43 42 44 46 46 47
39 40 43 46 50 52 54 56 57 55 55 56 57 56 54 52 52 53 50 46 44 49 54 53 52 53 51 48 47 50 52 51 51 48 44 44 44 42 43 44 43 43
40 39 41 44 48 52 55 57 58 56 55 54 55 55 53 51 52 53 53 51 49 51 55 56 56 56 56 53 50 51 54 54 53 51 47 45 45 46 47 45 41 40
43 41 41 42 45 50 54 58 59 57 55 54 54 54 52 51 51 52 53 53 52 53 54 57 57 56 56 56 53 51 51 51 51 50 47 46 46 46 47 46 42 40
45 46 45 44 45 47 50 54 58 58 57 55 55 54 52 51 50 49 51 52 53 53 52 53 54 52 55 58 55 52 52 53 53 50 47 47 46 44 44 46 44 41
45 46 48 47 46 46 47 49 52 56 56 56 55 53 51 51 50 49 48 48 50 51 49 49 49 49 55 58 53 50 50 52 54 54 52 50 49 48 47 48 47 45
45 45 46 48 47 46 46 46 48 50 53 54 54 53 52 51 50 50 48 43 44 46 46 47 48 48 52 55 53 50 48 47 48 51 52 52 52 52 51 52 50 49
47 47 46 46 47 47 47 46 46 47 50 52 52 51 51 51 51 51 49 43 41 43 44 46 48 48 48 50 52 51 47 45 45 45 46 48 50 49 48 48 49 49
48 50 50 47 46 46 47 47 46 46 49 50 49 49 50 50 50 50 48 44 40 40 42 43 45 48 47 47 50 50 47 45 44 42 43 44 45 46 44 44 46 48
51 52 54 54 52 49 48 48 46 46 48 49 48 48 48 49 49 49 48 45 41 40 40 39 40 43 46 47 48 49 47 46 45 44 42 41 41 42 42 41 41 43
61 57 56 57 58 57 53 50 48 45 45 46 46 46 47 48 48 48 48 46 43 40 40 38 37 39 42 44 46 49 48 46 45 45 43 42 41 41 40 40 39 39
74 69 63 58 56 57 56 54 53 49 45 44 43 44 45 46 46 47 47 48 46 43 41 39 38 40 41 42 47 53 54 49 46 45 44 44 43 41 40 40 39 37
84 80 75 68 62 59 58 57 56 54 49 44 41 38 39 42 43 45 46 46 47 45 42 41 42 43 41 38 38 44 48 48 47 46 45 43 43 42 41 41 41 39
87 85 83 79 74 70 67 65 62 59 55 49 42 36 33 33 35 38 42 45 47 47 43 42 43 43 41 35 31 33 37 40 43 44 43 42 42 41 41 41 42 41
89 88 86 84 82 79 78 76 72 67 63 58 52 45 37 31 29 30 32 36 42 44 43 42 42 42 41 37 32 31 33 34 37 41 43 42 42 42 41 41 41 41
89 88 87 86 85 84 83 83 80 75 71 66 62 56 47 37 32 29 27 28 32 38 40 41 41 41 41 37 32 31 32 33 34 39 41 42 42 43 42 41 40 39
86 86 86 86 87 87 87 87 85 83 79 75 70 65 57 46 38 34 30 27 27 30 33 35 38 40 38 34 31 31 31 32 32 35 39 41 42 42 42 41 40 38
84 84 85 86 87 88 89 90 91 91 89 84 77 72 66 58 50 45 41 35 30 30 30 32 37 40 37 32 31 30 29 30 31 32 36 38 38 38 38 38 37 36
79 79 80 82 82 82 85 89 92 95 96 92 87 81 75 69 63 59 56 50 42 37 35 36 41 43 39 33 32 30 29 29 30 31 32 33 33 34 34 34 34 34
74 74 75 75 75 78 83 86 88 91 94 95 93 90 84 76 71 69 67 63 58 52 46 44 47 49 44 38 33 31 30 30 30 30 31 31 31 32 33 33 34 34
70 72 73 72 71 74 79 83 84 87 91 93 94 93 90 84 78 75 74 71 69 66 60 56 54 52 49 45 40 37 35 36 35 33 32 32 33 34 34 33 33 33
67 70 70 69 70 73 78 81 81 83 87 93 94 92 91 89 86 82 78 75 73 73 70 66 60 53 51 51 49 45 43 43 43 40 36 35 36 37 38 36 35 36
61 63 63 64 66 71 75 79 81 80 82 89 91 88 88 90 90 87 84 82 80 78 76 74 69 62 60 59 54 50 49 48 48 49 46 43 42 43 45 45 45 45

ECMWFNIL_prec_cthk_111.txt.gz
RH
42 46 48 47 46 48 49 48 48 47 48 50 52 54 51 49 49 47 50 48 43 42 41 38 38 38 41 42 39 41 46 46 46 48 45 44 46 46 47 46 44 44
40 45 48 50 50 51 51 50 50 50 51 50 52 59 57 51 50 49 49 50 47 45 43 40 40 38 41 47 44 40 41 40 43 48 47 44 47 47 45 46 45 44
39 43 46 48 52 55 53 51 51 51 55 53 50 55 56 54 54 50 47 47 47 48 47 43 43 42 41 45 44 42 42 41 41 48 51 47 47 49 46 44 44 45
38 42 44 45 49 54 53 52 51 50 52 53 50 51 52 55 56 51 47 45 43 47 49 46 45 47 44 42 42 43 45 45 43 46 50 49 46 46 46 44 44 45
40 42 44 45 46 49 49 50 53 55 54 52 53 54 52 52 53 50 50 46 41 44 48 47 46 49 47 41 41 45 46 47 47 45 44 43 44 44 43 43 44 44
42 42 43 44 44 45 48 49 50 55 59 57 59 62 56 52 51 51 51 49 46 46 47 50 51 51 51 46 43 46 48 50 51 50 47 42 43 46 45 44 44 43
44 43 42 42 44 44 46 49 49 51 55 56 59 62 58 55 54 51 50 51 52 49 49 55 56 54 55 53 48 46 49 51 51 50 50 47 44 45 45 45 45 41
45 44 43 42 43 44 44 47 48 49 51 53 58 60 57 59 61 55 50 51 53 52 51 55 55 53 54 55 53 49 48 52 53 48 45 46 45 44 43 45 45 42
45 45 45 43 42 44 44 45 47 48 50 53 57 59 56 58 62 61 54 49 50 53 53 52 52 52 51 53 54 51 49 52 55 52 48 47 47 47 46 47 48 46
45 45 46 45 43 43 43 45 47 47 49 53 54 55 55 55 57 60 60 51 47 52 51 48 51 51 49 53 56 52 49 50 50 50 49 49 50 51 51 51 50 50
47 47 46 46 46 44 43 44 44 45 48 53 56 55 55 56 56 59 62 56 48 48 47 43 46 48 48 52 55 52 52 51 49 47 45 44 45 47 49 51 51 50
47 48 47 47 46 45 44 43 43 43 44 49 59 61 56 54 56 54 54 53 50 50 49 43 41 43 45 48 49 50 53 53 50 48 47 46 44 42 43 45 46 46
43 47 49 49 49 47 45 43 43 44 43 46 55 59 51 47 53 54 51 51 52 51 49 45 42 40 40 42 45 48 49 50 49 48 49 50 47 45 45 43 42 44
49 49 49 51 52 51 48 46 45 44 44 46 48 48 45 45 48 52 51 50 52 53 50 46 44 42 38 37 40 45 47 48 49 47 46 47 47 48 48 45 44 45
60 58 55 54 54 54 54 53 51 49 48 48 47 45 46 48 47 48 50 49 51 55 53 49 46 45 44 40 39 44 47 47 51 51 47 45 45 47 46 43 44 44
72 68 65 62 60 57 56 56 57 59 57 54 53 49 47 47 46 47 48 48 53 56 53 52 50 47 47 46 44 46 46 44 48 52 53 53 50 47 45 44 44 43
81 79 76 75 74 70 65 60 59 63 64 63 62 59 55 51 47 46 45 46 54 59 56 56 56 49 45 45 44 43 42 40 40 44 53 60 53 44 43 43 42 42
85 84 83 83 84 83 81 76 70 67 67 67 66 66 64 60 54 51 50 48 50 53 55 58 55 47 45 45 42 39 38 37 37 39 45 49 46 43 43 43 41 40
89 88 86 85 85 87 88 88 85 78 74 72 70 69 69 67 63 58 55 52 49 48 49 50 49 46 45 44 43 41 38 35 34 36 38 39 41 44 46 45 44 43
90 90 90 88 87 87 87 89 90 87 84 81 77 75 73 74 74 71 64 57 52 49 44 40 41 44 43 42 42 42 40 36 34 35 36 37 38 41 43 46 46 46
89 91 89 85 86 88 88 90 89 86 87 86 82 79 78 77 78 80 77 69 61 54 46 40 38 39 39 38 40 40 39 36 33 33 35 37 38 39 40 41 42 42
87 88 85 82 83 85 87 90 89 85 85 87 86 84 83 82 81 81 82 82 75 65 57 51 44 39 37 37 37 38 38 34 31 30 30 32 35 37 38 39 39 39
84 84 83 83 84 85 85 86 85 83 85 88 89 88 85 86 88 86 82 81 82 80 75 68 58 49 46 44 41 39 38 36 33 31 28 29 31 32 33 34 36 37
83 83 82 80 81 85 86 84 81 82 86 88 89 88 87 88 93 93 86 80 84 88 87 83 75 63 58 58 55 49 45 43 41 39 37 36 37 38 39 39 40 39
81 82 80 75 75 78 80 79 78 80 83 85 84 85 86 89 93 94 91 85 84 86 87 86 83 75 69 71 71 65 57 52 50 50 47 44 48 56 60 62 60 55
80 81 78 74 72 73 71 70 72 75 77 78 79 82 85 87 89 92 93 90 86 86 86 85 83 78 75 77 78 73 65 59 56 55 50 49 54 59 64 69 69 65

ECMWFNIL_prec_cthk_114.txt.gz
RH
35 36 37 38 40 43 45 42 40 43 47 47 45 45 46 48 50 50 50 49 44 41 42 42 39 36 36 37 38 40 42 43 44 44 41 38 36 38 44 47 44 43
34 36 37 39 41 45 47 46 45 45 47 51 52 51 50 49 48 49 49 50 47 43 41 40 38 35 35 38 38 36 38 39 39 41 41 38 37 39 42 45 47 45
31 36 39 41 42 43 46 49 50 48 48 52 52 54 56 52 50 50 48 48 47 44 44 41 38 37 36 38 39 38 38 38 36 37 39 40 40 40 42 44 47 49
28 34 38 42 46 46 47 52 52 48 47 50 50 52 54 55 55 52 48 48 46 44 45 44 41 40 40 39 40 40 39 39 38 38 40 44 44 41 42 43 45 49
28 32 36 40 45 47 47 52 55 51 47 47 50 52 52 54 57 56 52 49 45 43 46 45 42 43 43 41 40 41 40 41 43 42 40 41 41 40 39 41 43 44
33 32 35 38 42 44 46 51 55 54 51 51 52 52 51 52 54 55 55 54 49 45 48 49 46 45 45 43 41 41 42 44 46 46 45 42 40 39 40 44 46 43
39 36 37 40 41 42 44 49 54 53 52 54 55 55 56 57 56 54 54 54 52 51 52 53 52 51 50 49 46 42 42 46 48 47 47 47 46 42 42 46 48 45
43 41 41 40 40 41 42 47 51 51 49 51 54 54 55 57 57 56 56 53 51 54 55 55 55 54 52 53 51 46 44 46 48 47 46 45 43 42 43 44 45 44
44 45 44 41 40 41 42 44 47 49 48 48 50 50 51 55 56 57 59 58 55 55 54 55 56 53 50 51 53 52 48 47 50 51 49 46 42 42 43 43 43 43
45 46 46 44 42 41 42 44 45 47 48 47 49 51 52 54 56 56 56 57 59 57 52 51 53 53 51 50 51 53 50 48 50 52 52 50 47 44 44 45 46 47
45 45 45 45 44 43 42 42 43 44 46 47 49 52 53 54 56 57 55 55 58 59 55 50 50 50 50 47 48 52 53 50 48 50 51 50 48 45 44 45 47 49
46 44 45 44 44 44 42 42 43 42 44 48 49 49 52 56 57 57 56 55 57 59 57 53 52 50 47 45 43 46 53 55 52 52 54 52 49 48 47 45 44 45
54 49 46 45 45 45 44 42 43 44 44 46 48 48 49 53 57 60 60 57 58 59 57 55 54 53 50 47 43 41 46 52 54 55 57 55 53 52 51 51 50 48
59 54 46 45 45 46 46 44 44 45 45 45 47 48 46 46 54 63 66 60 57 58 58 55 55 55 52 50 49 44 42 45 50 54 57 58 59 56 53 55 55 53
57 50 44 44 45 44 45 46 46 46 45 45 48 48 47 45 49 60 65 60 57 58 57 56 57 58 55 54 55 52 46 46 47 51 55 60 62 59 54 55 57 56
54 48 44 45 46 46 47 47 48 48 47 48 48 48 48 46 49 61 65 58 56 59 60 58 58 58 57 57 58 57 54 51 47 47 53 56 58 59 57 53 55 55
58 56 53 52 51 51 53 53 52 51 50 51 51 51 53 53 56 66 70 66 62 61 61 61 60 59 60 60 61 59 56 53 47 47 52 51 50 54 57 56 55 54
69 68 66 64 60 59 63 65 63 58 55 55 56 58 65 69 67 67 69 73 70 59 57 64 65 60 59 61 63 61 57 53 49 47 49 47 43 43 48 57 59 53
75 76 75 74 73 72 72 73 72 70 67 65 62 63 70 75 73 70 71 75 70 60 60 69 71 66 62 62 62 61 60 58 51 45 43 42 41 40 40 47 51 49
79 79 80 80 81 80 80 79 79 79 80 79 76 73 74 74 72 73 77 77 72 67 65 66 66 68 69 66 63 63 64 59 50 46 43 40 40 39 38 40 42 44
83 83 84 85 85 86 86 86 87 87 86 85 84 83 83 82 78 78 80 79 76 73 69 65 63 65 69 66 63 62 61 54 48 47 45 42 40 40 40 41 41 41
83 84 83 84 86 88 89 89 89 89 88 87 86 85 86 88 87 85 83 80 78 75 72 71 69 67 68 68 64 58 53 50 49 49 46 43 40 39 40 41 41 40
82 83 82 84 85 87 88 89 89 89 89 88 86 85 87 89 89 88 85 83 80 79 76 77 77 74 71 72 70 63 54 49 47 48 48 45 41 37 35 35 35 37
80 80 81 82 84 86 87 87 86 86 87 86 85 85 87 87 85 84 84 84 85 84 82 81 83 82 78 78 79 74 63 54 48 47 45 44 41 38 34 32 32 33
78 77 77 80 84 85 84 82 82 82 84 83 83 84 84 84 83 83 84 86 89 92 91 88 86 85 84 84 85 81 73 65 59 55 50 47 46 45 43 39 38 38
75 76 77 80 83 84 83 81 80 81 83 83 83 84 83 83 82 81 83 86 90 92 93 92 89 87 87 88 87 84 80 75 72 69 65 61 58 57 55 52 48 46

ECMWFNIL_prec_cthk_117.txt.gz
RH
33 35 37 40 42 43 43 42 39 39 41 40 38 40 41 43 48 46 42 41 37 37 41 43 41 38 38 39 41 44 47 47 46 43 40 37 36 37 39 41 44 44
33 35 36 36 38 39 41 42 39 37 42 44 42 42 42 43 47 47 45 45 43 41 41 41 39 35 34 36 37 38 40 41 41 42 42 39 38 38 39 41 44 45
31 35 35 33 34 38 42 43 42 41 43 47 49 49 48 47 47 47 45 45 45 43 42 41 39 36 34 36 37 37 37 37 38 38 40 41 40 39 40 42 44 45
29 33 34 33 36 39 41 43 46 46 47 49 51 52 52 52 51 50 47 45 44 43 43 43 41 38 37 37 38 39 38 38 38 37 37 42 44 43 42 43 45 46
28 31 33 35 39 39 40 44 48 49 47 49 51 50 51 53 53 52 51 48 45 42 42 43 42 41 41 40 38 39 40 39 41 41 41 42 44 43 42 42 43 45
28 30 32 36 40 42 42 45 49 51 49 48 49 50 52 53 53 54 54 52 48 45 42 42 43 43 43 42 40 41 41 41 43 45 45 44 42 41 40 40 42 45
28 29 30 33 39 43 44 44 48 53 53 49 48 50 51 52 53 54 53 52 51 49 46 45 47 49 47 45 44 44 43 43 45 47 47 48 48 46 43 41 43 47
30 29 29 32 37 42 43 43 46 51 54 53 52 52 53 54 56 56 54 53 51 50 49 48 51 54 54 50 49 50 47 45 47 48 48 49 49 47 44 43 44 47
36 33 31 32 37 41 41 41 43 46 51 54 52 51 53 56 58 58 57 55 53 51 51 51 53 56 56 52 51 53 52 50 49 49 50 51 48 44 43 44 46 47
43 41 38 34 36 40 40 39 40 43 47 50 50 48 51 53 53 55 57 56 56 56 55 53 52 54 55 53 50 51 53 54 52 50 52 54 52 48 45 43 45 47
46 45 45 42 40 41 41 40 40 42 44 47 48 46 46 48 49 52 55 55 55 57 58 56 53 51 51 52 49 48 51 54 54 53 52 53 53 52 49 45 46 48
46 47 48 47 46 46 45 43 41 41 42 45 48 47 46 47 49 52 55 55 54 55 56 57 57 53 49 49 48 47 47 49 54 57 55 53 54 55 52 48 48 48
48 48 48 48 48 48 48 46 43 43 42 43 45 46 47 48 49 51 54 56 56 56 56 56 59 57 53 51 49 48 46 45 49 56 58 56 56 56 54 52 52 51
52 50 49 49 49 49 49 48 46 45 43 42 44 46 46 47 48 49 51 54 56 58 58 58 58 57 55 54 53 50 48 44 44 48 52 56 58 59 57 56 56 56
55 51 50 52 54 53 51 50 48 48 46 45 45 47 47 47 47 46 46 49 54 61 63 61 59 58 57 57 56 54 51 49 47 47 46 50 54 58 61 61 60 59
65 58 51 52 58 59 53 48 47 48 49 47 45 48 53 52 49 47 46 45 49 58 64 63 62 61 62 63 62 58 57 55 55 53 51 50 51 54 58 61 61 60
77 70 58 53 57 59 52 45 45 47 47 46 44 48 55 55 51 51 52 49 49 54 62 64 61 59 63 68 66 61 58 58 57 58 57 55 52 51 53 55 56 56
76 76 69 59 58 60 54 46 47 49 48 48 46 48 52 52 50 51 52 51 51 56 64 69 66 65 68 71 69 64 60 58 59 59 58 56 53 51 50 49 49 49
76 80 78 68 63 66 62 54 52 54 54 54 54 54 54 53 52 52 52 54 57 61 68 72 71 74 77 76 73 71 68 64 62 59 57 55 53 52 49 46 44 43
84 83 81 76 72 73 71 66 63 61 60 61 63 64 63 61 58 55 55 60 65 70 74 72 69 74 78 74 73 74 74 71 66 62 58 56 55 54 51 44 41 41
85 82 80 80 78 78 78 77 75 73 70 69 70 72 72 71 69 68 66 67 69 74 78 77 72 75 76 72 69 71 74 74 72 68 63 59 56 57 55 47 40 40
81 80 80 81 81 80 80 79 79 80 79 78 78 79 79 77 77 78 79 79 77 78 82 82 78 77 78 75 69 67 68 70 72 72 69 64 60 59 59 52 44 40
82 82 83 84 84 85 84 83 82 82 82 82 82 83 84 85 84 82 82 83 82 82 85 87 85 83 83 80 75 69 66 65 67 68 69 68 64 61 59 53 46 41
80 84 86 87 87 87 87 87 88 87 85 84 83 85 87 88 88 88 87 87 86 86 86 88 89 89 86 83 79 74 71 69 68 68 69 69 66 62 60 55 49 43
77 80 83 84 86 85 85 86 86 85 85 85 85 86 87 87 88 88 88 88 89 89 89 89 90 90 89 86 83 79 77 77 77 76 76 74 69 65 63 60 54 50
77 77 79 81 81 80 80 81 82 81 82 83 85 85 85 87 87 87 86 87 87 88 89 89 89 88 88 88 87 85 83 82 82 83 83 80 75 69 68 66 63 59

ECMWFNIL_prec_cthk_123.txt.gz
RH
39 43 45 45 47 49 50 48 46 45 41 39 37 33 31 34 36 36 36 37 39 41 43 44 46 47 48 47 46 44 43 44 43 42 40 39 38 37 37 37 39 41
34 38 41 44 47 48 50 49 47 46 45 43 42 39 35 35 37 37 36 37 37 39 41 43 45 46 47 48 46 46 47 47 47 45 42 40 39 37 36 36 38 40
31 33 36 41 45 46 47 48 46 45 45 45 45 45 41 38 41 42 39 38 38 39 40 43 44 44 44 45 44 44 47 47 47 48 45 41 39 38 37 36 37 38
30 30 33 37 42 44 45 46 45 44 44 44 44 45 44 42 45 48 46 44 42 41 42 44 44 43 41 41 40 40 41 41 42 44 44 42 40 40 39 38 38 39
30 29 31 34 38 42 44 45 45 43 43 43 42 43 44 43 45 49 50 48 46 45 45 46 45 43 41 39 39 39 39 39 39 39 40 40 41 42 42 41 40 40
32 29 30 33 35 38 41 41 42 43 43 42 42 45 46 46 46 47 48 48 47 46 46 46 46 45 42 40 38 39 39 39 39 40 38 38 39 41 42 42 41 41
34 31 29 32 34 37 38 37 38 42 43 41 41 45 49 50 50 49 50 49 47 46 45 45 46 46 45 43 40 40 40 40 39 40 40 40 41 41 42 43 42 42
35 33 31 31 34 36 37 36 37 40 43 43 42 44 49 52 52 52 52 52 50 48 46 45 44 45 45 45 44 43 42 41 40 40 41 43 44 45 46 45 44 42
36 34 32 31 32 34 36 37 38 40 41 43 44 45 48 52 52 52 53 55 55 53 51 48 46 44 43 44 45 46 45 43 42 42 42 44 45 47 48 48 46 44
37 36 34 32 31 32 34 37 39 40 41 44 46 48 49 51 52 53 53 54 55 55 54 53 50 47 45 45 48 49 48 46 46 45 44 44 45 47 48 48 46 44
38 37 37 34 31 30 32 35 38 40 42 44 47 49 51 53 53 54 54 52 53 56 55 54 51 49 48 48 50 52 51 50 50 50 49 47 46 47 49 50 47 45
39 38 38 36 34 31 30 32 35 38 41 44 47 50 52 55 55 54 54 54 56 58 58 55 53 52 52 51 52 52 52 51 51 50 50 50 49 49 49 50 50 48
41 40 39 38 36 34 32 31 32 35 37 41 46 48 51 54 56 55 54 54 57 59 59 57 56 56 56 55 54 54 52 52 51 50 49 49 48 48 49 50 51 50
44 43 42 40 38 37 35 33 33 33 35 39 43 45 46 48 51 52 51 51 53 56 57 55 55 57 59 58 58 57 55 52 51 50 49 47 45 45 47 49 51 50
49 46 44 42 41 41 39 37 36 35 36 40 43 43 44 44 45 47 47 47 48 50 51 52 53 57 59 59 58 57 57 57 55 53 51 48 46 45 44 46 49 50
55 51 49 47 45 46 46 44 42 40 40 42 43 43 43 42 42 43 45 47 48 47 48 49 52 56 59 60 59 58 57 58 58 57 54 52 50 48 46 44 46 48
61 59 56 55 54 53 52 51 49 46 45 44 45 46 45 44 44 44 45 47 48 48 49 50 52 54 57 59 60 61 60 59 59 58 57 55 53 52 49 47 47 48
68 67 64 65 68 65 60 56 53 52 52 49 47 48 49 49 48 47 46 47 47 48 49 50 51 52 54 55 57 60 62 63 62 62 60 59 59 58 56 53 52 52
75 74 71 71 77 77 71 63 59 62 64 61 60 57 53 51 50 49 49 47 47 49 50 50 51 51 51 52 52 55 60 62 64 64 63 62 63 65 65 62 60 60
81 81 77 74 77 81 81 74 67 68 71 72 74 69 58 52 52 51 50 50 49 51 52 53 53 53 54 54 53 53 55 58 60 63 64 64 65 68 71 70 67 66
83 82 79 76 75 79 85 85 78 74 75 75 74 70 63 60 56 50 49 50 50 50 52 54 56 57 57 57 57 57 57 56 57 61 66 69 70 72 74 74 74 73
86 84 82 80 79 79 84 88 85 81 79 77 74 74 73 71 66 58 52 51 50 50 49 51 54 57 58 58 59 59 60 59 59 63 70 75 77 77 77 78 79 79
89 88 85 83 82 81 81 85 86 84 81 79 79 81 78 74 73 71 66 62 61 60 58 55 56 59 60 60 60 60 61 63 66 71 76 79 81 82 81 81 83 82
89 90 87 85 86 87 86 87 87 86 83 81 82 83 78 74 77 79 77 74 72 70 69 68 69 70 70 68 66 64 63 64 66 71 75 78 80 82 80 80 81 81
90 91 89 86 89 91 89 88 88 87 86 84 84 83 81 81 82 82 81 80 78 75 74 75 78 79 79 77 76 74 71 69 68 69 71 73 76 79 80 80 80 79
91 91 90 88 89 90 89 88 87 87 86 85 85 85 84 85 85 82 82 83 81 80 79 80 81 83 83 82 83 82 81 80 78 77 76 76 77 79 82 83 83 82